<?xml version="1.0" encoding="UTF-8" standalone="no" ?><gpx xmlns="http://www.topografix.com/GPX/1/1" xmlns:gpxx="http://www.garmin.com/xmlschemas/GpxExtensions/v3" xmlns:wptx1="http://www.garmin.com/xmlschemas/WaypointExtension/v1" xmlns:gpxtpx="http://www.garmin.com/xmlschemas/TrackPointExtension/v1" creator="GuideVTT.com" version="1.1" xmlns:xsi="http://www.w3.org/2001/XMLSchema-instance" xsi:schemaLocation="http://www.topografix.com/GPX/1/1 http://www.topografix.com/GPX/1/1/gpx.xsd http://www.garmin.com/xmlschemas/GpxExtensions/v3 http://www8.garmin.com/xmlschemas/GpxExtensionsv3.xsd http://www.garmin.com/xmlschemas/WaypointExtension/v1 http://www8.garmin.com/xmlschemas/WaypointExtensionv1.xsd http://www.garmin.com/xmlschemas/TrackPointExtension/v1 http://www.garmin.com/xmlschemas/TrackPointExtensionv1.xsd">
<metadata><link href="http://www.garmin.com"><text>Garmin International</text></link><time>2013-06-22T15:13:50Z</time></metadata>
<trk><name>parcours41.gpx</name><extensions><gpxx:TrackExtension><gpxx:DisplayColor>Cyan</gpxx:DisplayColor></gpxx:TrackExtension></extensions><trkseg>
<trkpt lat="47.41975000" lon="7.07185000"><ele>455</ele><time>2006-01-01T00:00:00Z</time></trkpt>
<trkpt lat="47.41963330" lon="7.07163330"><ele>457</ele><time>2006-01-01T00:00:00Z</time></trkpt>
<trkpt lat="47.41946670" lon="7.07148330"><ele>459</ele><time>2006-01-01T00:00:00Z</time></trkpt>
<trkpt lat="47.41925000" lon="7.07143330"><ele>460</ele><time>2006-01-01T00:00:00Z</time></trkpt>
<trkpt lat="47.41903330" lon="7.07130000"><ele>459</ele><time>2006-01-01T00:00:00Z</time></trkpt>
<trkpt lat="47.41883330" lon="7.07118330"><ele>459</ele><time>2006-01-01T00:00:00Z</time></trkpt>
<trkpt lat="47.41861670" lon="7.07101670"><ele>458</ele><time>2006-01-01T00:00:00Z</time></trkpt>
<trkpt lat="47.41848330" lon="7.07073330"><ele>459</ele><time>2006-01-01T00:00:00Z</time></trkpt>
<trkpt lat="47.41848330" lon="7.07046670"><ele>461</ele><time>2006-01-01T00:00:00Z</time></trkpt>
<trkpt lat="47.41846670" lon="7.07010000"><ele>464</ele><time>2006-01-01T00:00:00Z</time></trkpt>
<trkpt lat="47.41845000" lon="7.06970000"><ele>466</ele><time>2006-01-01T00:00:00Z</time></trkpt>
<trkpt lat="47.41845000" lon="7.06933330"><ele>468</ele><time>2006-01-01T00:00:00Z</time></trkpt>
<trkpt lat="47.41845000" lon="7.06901670"><ele>469</ele><time>2006-01-01T00:00:00Z</time></trkpt>
<trkpt lat="47.41855000" lon="7.06878330"><ele>470</ele><time>2006-01-01T00:00:00Z</time></trkpt>
<trkpt lat="47.41861670" lon="7.06850000"><ele>471</ele><time>2006-01-01T00:00:00Z</time></trkpt>
<trkpt lat="47.41880000" lon="7.06871670"><ele>478</ele><time>2006-01-01T00:00:00Z</time></trkpt>
<trkpt lat="47.41895000" lon="7.06888330"><ele>477</ele><time>2006-01-01T00:00:00Z</time></trkpt>
<trkpt lat="47.41911670" lon="7.06905000"><ele>479</ele><time>2006-01-01T00:00:00Z</time></trkpt>
<trkpt lat="47.41928330" lon="7.06900000"><ele>477</ele><time>2006-01-01T00:00:00Z</time></trkpt>
<trkpt lat="47.41948330" lon="7.06898330"><ele>481</ele><time>2006-01-01T00:00:00Z</time></trkpt>
<trkpt lat="47.41966670" lon="7.06883330"><ele>483</ele><time>2006-01-01T00:00:00Z</time></trkpt>
<trkpt lat="47.41985000" lon="7.06871670"><ele>486</ele><time>2006-01-01T00:00:00Z</time></trkpt>
<trkpt lat="47.42001670" lon="7.06863330"><ele>486</ele><time>2006-01-01T00:00:00Z</time></trkpt>
<trkpt lat="47.42020000" lon="7.06853330"><ele>489</ele><time>2006-01-01T00:00:00Z</time></trkpt>
<trkpt lat="47.42036670" lon="7.06843330"><ele>489</ele><time>2006-01-01T00:00:00Z</time></trkpt>
<trkpt lat="47.42055000" lon="7.06833330"><ele>490</ele><time>2006-01-01T00:00:00Z</time></trkpt>
<trkpt lat="47.42071670" lon="7.06820000"><ele>490</ele><time>2006-01-01T00:00:00Z</time></trkpt>
<trkpt lat="47.42085000" lon="7.06803330"><ele>489</ele><time>2006-01-01T00:00:00Z</time></trkpt>
<trkpt lat="47.42106670" lon="7.06798330"><ele>488</ele><time>2006-01-01T00:00:00Z</time></trkpt>
<trkpt lat="47.42126670" lon="7.06816670"><ele>487</ele><time>2006-01-01T00:00:00Z</time></trkpt>
<trkpt lat="47.42140000" lon="7.06838330"><ele>487</ele><time>2006-01-01T00:00:00Z</time></trkpt>
<trkpt lat="47.42145000" lon="7.06865000"><ele>488</ele><time>2006-01-01T00:00:00Z</time></trkpt>
<trkpt lat="47.42146670" lon="7.06893330"><ele>490</ele><time>2006-01-01T00:00:00Z</time></trkpt>
<trkpt lat="47.42151670" lon="7.06923330"><ele>492</ele><time>2006-01-01T00:00:00Z</time></trkpt>
<trkpt lat="47.42161670" lon="7.06948330"><ele>492</ele><time>2006-01-01T00:00:00Z</time></trkpt>
<trkpt lat="47.42170000" lon="7.06973330"><ele>495</ele><time>2006-01-01T00:00:00Z</time></trkpt>
<trkpt lat="47.42180000" lon="7.06996670"><ele>492</ele><time>2006-01-01T00:00:00Z</time></trkpt>
<trkpt lat="47.42190000" lon="7.07021670"><ele>494</ele><time>2006-01-01T00:00:00Z</time></trkpt>
<trkpt lat="47.42198330" lon="7.07048330"><ele>494</ele><time>2006-01-01T00:00:00Z</time></trkpt>
<trkpt lat="47.42210000" lon="7.07071670"><ele>495</ele><time>2006-01-01T00:00:00Z</time></trkpt>
<trkpt lat="47.42221670" lon="7.07096670"><ele>497</ele><time>2006-01-01T00:00:00Z</time></trkpt>
<trkpt lat="47.42235000" lon="7.07116670"><ele>499</ele><time>2006-01-01T00:00:00Z</time></trkpt>
<trkpt lat="47.42250000" lon="7.07136670"><ele>501</ele><time>2006-01-01T00:00:00Z</time></trkpt>
<trkpt lat="47.42266670" lon="7.07145000"><ele>503</ele><time>2006-01-01T00:00:00Z</time></trkpt>
<trkpt lat="47.42285000" lon="7.07143330"><ele>503</ele><time>2006-01-01T00:00:00Z</time></trkpt>
<trkpt lat="47.42303330" lon="7.07143330"><ele>507</ele><time>2006-01-01T00:00:00Z</time></trkpt>
<trkpt lat="47.42323330" lon="7.07138330"><ele>502</ele><time>2006-01-01T00:00:00Z</time></trkpt>
<trkpt lat="47.42340000" lon="7.07133330"><ele>499</ele><time>2006-01-01T00:00:00Z</time></trkpt>
<trkpt lat="47.42358330" lon="7.07123330"><ele>501</ele><time>2006-01-01T00:00:00Z</time></trkpt>
<trkpt lat="47.42376670" lon="7.07113330"><ele>504</ele><time>2006-01-01T00:00:00Z</time></trkpt>
<trkpt lat="47.42393330" lon="7.07101670"><ele>508</ele><time>2006-01-01T00:00:00Z</time></trkpt>
<trkpt lat="47.42411670" lon="7.07091670"><ele>507</ele><time>2006-01-01T00:00:00Z</time></trkpt>
<trkpt lat="47.42428330" lon="7.07083330"><ele>509</ele><time>2006-01-01T00:00:00Z</time></trkpt>
<trkpt lat="47.42445000" lon="7.07073330"><ele>511</ele><time>2006-01-01T00:00:00Z</time></trkpt>
<trkpt lat="47.42463330" lon="7.07061670"><ele>512</ele><time>2006-01-01T00:00:00Z</time></trkpt>
<trkpt lat="47.42480000" lon="7.07053330"><ele>512</ele><time>2006-01-01T00:00:00Z</time></trkpt>
<trkpt lat="47.42496670" lon="7.07041670"><ele>513</ele><time>2006-01-01T00:00:00Z</time></trkpt>
<trkpt lat="47.42513330" lon="7.07030000"><ele>513</ele><time>2006-01-01T00:00:00Z</time></trkpt>
<trkpt lat="47.42528330" lon="7.07013330"><ele>515</ele><time>2006-01-01T00:00:00Z</time></trkpt>
<trkpt lat="47.42543330" lon="7.06996670"><ele>517</ele><time>2006-01-01T00:00:00Z</time></trkpt>
<trkpt lat="47.42560000" lon="7.06973330"><ele>515</ele><time>2006-01-01T00:00:00Z</time></trkpt>
<trkpt lat="47.42576670" lon="7.06955000"><ele>515</ele><time>2006-01-01T00:00:00Z</time></trkpt>
<trkpt lat="47.42590000" lon="7.06938330"><ele>518</ele><time>2006-01-01T00:00:00Z</time></trkpt>
<trkpt lat="47.42606670" lon="7.06923330"><ele>528</ele><time>2006-01-01T00:00:00Z</time></trkpt>
<trkpt lat="47.42623330" lon="7.06910000"><ele>528</ele><time>2006-01-01T00:00:00Z</time></trkpt>
<trkpt lat="47.42640000" lon="7.06896670"><ele>530</ele><time>2006-01-01T00:00:00Z</time></trkpt>
<trkpt lat="47.42656670" lon="7.06886670"><ele>534</ele><time>2006-01-01T00:00:00Z</time></trkpt>
<trkpt lat="47.42673330" lon="7.06873330"><ele>537</ele><time>2006-01-01T00:00:00Z</time></trkpt>
<trkpt lat="47.42688330" lon="7.06856670"><ele>533</ele><time>2006-01-01T00:00:00Z</time></trkpt>
<trkpt lat="47.42703330" lon="7.06838330"><ele>530</ele><time>2006-01-01T00:00:00Z</time></trkpt>
<trkpt lat="47.42720000" lon="7.06818330"><ele>529</ele><time>2006-01-01T00:00:00Z</time></trkpt>
<trkpt lat="47.42735000" lon="7.06796670"><ele>526</ele><time>2006-01-01T00:00:00Z</time></trkpt>
<trkpt lat="47.42746670" lon="7.06768330"><ele>523</ele><time>2006-01-01T00:00:00Z</time></trkpt>
<trkpt lat="47.42755000" lon="7.06743330"><ele>521</ele><time>2006-01-01T00:00:00Z</time></trkpt>
<trkpt lat="47.42765000" lon="7.06718330"><ele>520</ele><time>2006-01-01T00:00:00Z</time></trkpt>
<trkpt lat="47.42775000" lon="7.06690000"><ele>518</ele><time>2006-01-01T00:00:00Z</time></trkpt>
<trkpt lat="47.42781670" lon="7.06665000"><ele>517</ele><time>2006-01-01T00:00:00Z</time></trkpt>
<trkpt lat="47.42780000" lon="7.06635000"><ele>519</ele><time>2006-01-01T00:00:00Z</time></trkpt>
<trkpt lat="47.42773330" lon="7.06611670"><ele>525</ele><time>2006-01-01T00:00:00Z</time></trkpt>
<trkpt lat="47.42758330" lon="7.06560000"><ele>531</ele><time>2006-01-01T00:00:00Z</time></trkpt>
<trkpt lat="47.42750000" lon="7.06535000"><ele>534</ele><time>2006-01-01T00:00:00Z</time></trkpt>
<trkpt lat="47.42738330" lon="7.06513330"><ele>533</ele><time>2006-01-01T00:00:00Z</time></trkpt>
<trkpt lat="47.42728330" lon="7.06491670"><ele>531</ele><time>2006-01-01T00:00:00Z</time></trkpt>
<trkpt lat="47.42715000" lon="7.06470000"><ele>524</ele><time>2006-01-01T00:00:00Z</time></trkpt>
<trkpt lat="47.42708330" lon="7.06443330"><ele>530</ele><time>2006-01-01T00:00:00Z</time></trkpt>
<trkpt lat="47.42703330" lon="7.06415000"><ele>535</ele><time>2006-01-01T00:00:00Z</time></trkpt>
<trkpt lat="47.42698330" lon="7.06388330"><ele>537</ele><time>2006-01-01T00:00:00Z</time></trkpt>
<trkpt lat="47.42695000" lon="7.06356670"><ele>537</ele><time>2006-01-01T00:00:00Z</time></trkpt>
<trkpt lat="47.42693330" lon="7.06326670"><ele>538</ele><time>2006-01-01T00:00:00Z</time></trkpt>
<trkpt lat="47.42688330" lon="7.06296670"><ele>539</ele><time>2006-01-01T00:00:00Z</time></trkpt>
<trkpt lat="47.42683330" lon="7.06266670"><ele>538</ele><time>2006-01-01T00:00:00Z</time></trkpt>
<trkpt lat="47.42676670" lon="7.06241670"><ele>537</ele><time>2006-01-01T00:00:00Z</time></trkpt>
<trkpt lat="47.42666670" lon="7.06220000"><ele>534</ele><time>2006-01-01T00:00:00Z</time></trkpt>
<trkpt lat="47.42651670" lon="7.06205000"><ele>517</ele><time>2006-01-01T00:00:00Z</time></trkpt>
<trkpt lat="47.42645000" lon="7.06176670"><ele>526</ele><time>2006-01-01T00:00:00Z</time></trkpt>
<trkpt lat="47.42636670" lon="7.06151670"><ele>528</ele><time>2006-01-01T00:00:00Z</time></trkpt>
<trkpt lat="47.42626670" lon="7.06125000"><ele>530</ele><time>2006-01-01T00:00:00Z</time></trkpt>
<trkpt lat="47.42618330" lon="7.06100000"><ele>529</ele><time>2006-01-01T00:00:00Z</time></trkpt>
<trkpt lat="47.42610000" lon="7.06070000"><ele>526</ele><time>2006-01-01T00:00:00Z</time></trkpt>
<trkpt lat="47.42600000" lon="7.06041670"><ele>526</ele><time>2006-01-01T00:00:00Z</time></trkpt>
<trkpt lat="47.42590000" lon="7.06018330"><ele>527</ele><time>2006-01-01T00:00:00Z</time></trkpt>
<trkpt lat="47.42575000" lon="7.05993330"><ele>527</ele><time>2006-01-01T00:00:00Z</time></trkpt>
<trkpt lat="47.42560000" lon="7.05970000"><ele>528</ele><time>2006-01-01T00:00:00Z</time></trkpt>
<trkpt lat="47.42545000" lon="7.05950000"><ele>528</ele><time>2006-01-01T00:00:00Z</time></trkpt>
<trkpt lat="47.42530000" lon="7.05930000"><ele>528</ele><time>2006-01-01T00:00:00Z</time></trkpt>
<trkpt lat="47.42518330" lon="7.05906670"><ele>529</ele><time>2006-01-01T00:00:00Z</time></trkpt>
<trkpt lat="47.42500000" lon="7.05883330"><ele>530</ele><time>2006-01-01T00:00:00Z</time></trkpt>
<trkpt lat="47.42480000" lon="7.05861670"><ele>530</ele><time>2006-01-01T00:00:00Z</time></trkpt>
<trkpt lat="47.42460000" lon="7.05841670"><ele>530</ele><time>2006-01-01T00:00:00Z</time></trkpt>
<trkpt lat="47.42438330" lon="7.05821670"><ele>526</ele><time>2006-01-01T00:00:00Z</time></trkpt>
<trkpt lat="47.42416670" lon="7.05805000"><ele>523</ele><time>2006-01-01T00:00:00Z</time></trkpt>
<trkpt lat="47.42396670" lon="7.05790000"><ele>521</ele><time>2006-01-01T00:00:00Z</time></trkpt>
<trkpt lat="47.42380000" lon="7.05775000"><ele>523</ele><time>2006-01-01T00:00:00Z</time></trkpt>
<trkpt lat="47.42363330" lon="7.05761670"><ele>522</ele><time>2006-01-01T00:00:00Z</time></trkpt>
<trkpt lat="47.42346670" lon="7.05743330"><ele>523</ele><time>2006-01-01T00:00:00Z</time></trkpt>
<trkpt lat="47.42330000" lon="7.05726670"><ele>526</ele><time>2006-01-01T00:00:00Z</time></trkpt>
<trkpt lat="47.42315000" lon="7.05706670"><ele>530</ele><time>2006-01-01T00:00:00Z</time></trkpt>
<trkpt lat="47.42305000" lon="7.05680000"><ele>534</ele><time>2006-01-01T00:00:00Z</time></trkpt>
<trkpt lat="47.42301670" lon="7.05651670"><ele>541</ele><time>2006-01-01T00:00:00Z</time></trkpt>
<trkpt lat="47.42295000" lon="7.05626670"><ele>544</ele><time>2006-01-01T00:00:00Z</time></trkpt>
<trkpt lat="47.42283330" lon="7.05601670"><ele>544</ele><time>2006-01-01T00:00:00Z</time></trkpt>
<trkpt lat="47.42265000" lon="7.05583330"><ele>547</ele><time>2006-01-01T00:00:00Z</time></trkpt>
<trkpt lat="47.42248330" lon="7.05575000"><ele>541</ele><time>2006-01-01T00:00:00Z</time></trkpt>
<trkpt lat="47.42230000" lon="7.05565000"><ele>540</ele><time>2006-01-01T00:00:00Z</time></trkpt>
<trkpt lat="47.42211670" lon="7.05556670"><ele>545</ele><time>2006-01-01T00:00:00Z</time></trkpt>
<trkpt lat="47.42191670" lon="7.05550000"><ele>545</ele><time>2006-01-01T00:00:00Z</time></trkpt>
<trkpt lat="47.42173330" lon="7.05545000"><ele>542</ele><time>2006-01-01T00:00:00Z</time></trkpt>
<trkpt lat="47.42155000" lon="7.05545000"><ele>527</ele><time>2006-01-01T00:00:00Z</time></trkpt>
<trkpt lat="47.42135000" lon="7.05538330"><ele>518</ele><time>2006-01-01T00:00:00Z</time></trkpt>
<trkpt lat="47.42115000" lon="7.05528330"><ele>522</ele><time>2006-01-01T00:00:00Z</time></trkpt>
<trkpt lat="47.42116670" lon="7.05501670"><ele>535</ele><time>2006-01-01T00:00:00Z</time></trkpt>
<trkpt lat="47.42126670" lon="7.05476670"><ele>535</ele><time>2006-01-01T00:00:00Z</time></trkpt>
<trkpt lat="47.42140000" lon="7.05458330"><ele>535</ele><time>2006-01-01T00:00:00Z</time></trkpt>
<trkpt lat="47.42156670" lon="7.05445000"><ele>537</ele><time>2006-01-01T00:00:00Z</time></trkpt>
<trkpt lat="47.42175000" lon="7.05436670"><ele>543</ele><time>2006-01-01T00:00:00Z</time></trkpt>
<trkpt lat="47.42191670" lon="7.05428330"><ele>542</ele><time>2006-01-01T00:00:00Z</time></trkpt>
<trkpt lat="47.42211670" lon="7.05418330"><ele>543</ele><time>2006-01-01T00:00:00Z</time></trkpt>
<trkpt lat="47.42245000" lon="7.05391670"><ele>539</ele><time>2006-01-01T00:00:00Z</time></trkpt>
<trkpt lat="47.42263330" lon="7.05381670"><ele>539</ele><time>2006-01-01T00:00:00Z</time></trkpt>
<trkpt lat="47.42281670" lon="7.05371670"><ele>537</ele><time>2006-01-01T00:00:00Z</time></trkpt>
<trkpt lat="47.42301670" lon="7.05366670"><ele>540</ele><time>2006-01-01T00:00:00Z</time></trkpt>
<trkpt lat="47.42321670" lon="7.05361670"><ele>542</ele><time>2006-01-01T00:00:00Z</time></trkpt>
<trkpt lat="47.42338330" lon="7.05353330"><ele>543</ele><time>2006-01-01T00:00:00Z</time></trkpt>
<trkpt lat="47.42355000" lon="7.05340000"><ele>542</ele><time>2006-01-01T00:00:00Z</time></trkpt>
<trkpt lat="47.42368330" lon="7.05320000"><ele>540</ele><time>2006-01-01T00:00:00Z</time></trkpt>
<trkpt lat="47.42388330" lon="7.05318330"><ele>539</ele><time>2006-01-01T00:00:00Z</time></trkpt>
<trkpt lat="47.42411670" lon="7.05311670"><ele>537</ele><time>2006-01-01T00:00:00Z</time></trkpt>
<trkpt lat="47.42428330" lon="7.05303330"><ele>537</ele><time>2006-01-01T00:00:00Z</time></trkpt>
<trkpt lat="47.42448330" lon="7.05295000"><ele>539</ele><time>2006-01-01T00:00:00Z</time></trkpt>
<trkpt lat="47.42468330" lon="7.05290000"><ele>543</ele><time>2006-01-01T00:00:00Z</time></trkpt>
<trkpt lat="47.42486670" lon="7.05288330"><ele>548</ele><time>2006-01-01T00:00:00Z</time></trkpt>
<trkpt lat="47.42505000" lon="7.05290000"><ele>553</ele><time>2006-01-01T00:00:00Z</time></trkpt>
<trkpt lat="47.42526670" lon="7.05288330"><ele>556</ele><time>2006-01-01T00:00:00Z</time></trkpt>
<trkpt lat="47.42546670" lon="7.05286670"><ele>554</ele><time>2006-01-01T00:00:00Z</time></trkpt>
<trkpt lat="47.42565000" lon="7.05283330"><ele>556</ele><time>2006-01-01T00:00:00Z</time></trkpt>
<trkpt lat="47.42583330" lon="7.05276670"><ele>564</ele><time>2006-01-01T00:00:00Z</time></trkpt>
<trkpt lat="47.42601670" lon="7.05265000"><ele>568</ele><time>2006-01-01T00:00:00Z</time></trkpt>
<trkpt lat="47.42620000" lon="7.05261670"><ele>569</ele><time>2006-01-01T00:00:00Z</time></trkpt>
<trkpt lat="47.42640000" lon="7.05260000"><ele>563</ele><time>2006-01-01T00:00:00Z</time></trkpt>
<trkpt lat="47.42660000" lon="7.05270000"><ele>560</ele><time>2006-01-01T00:00:00Z</time></trkpt>
<trkpt lat="47.42676670" lon="7.05276670"><ele>559</ele><time>2006-01-01T00:00:00Z</time></trkpt>
<trkpt lat="47.42695000" lon="7.05288330"><ele>558</ele><time>2006-01-01T00:00:00Z</time></trkpt>
<trkpt lat="47.42741670" lon="7.05298330"><ele>569</ele><time>2006-01-01T00:00:00Z</time></trkpt>
<trkpt lat="47.42756670" lon="7.05316670"><ele>569</ele><time>2006-01-01T00:00:00Z</time></trkpt>
<trkpt lat="47.42761670" lon="7.05341670"><ele>551</ele><time>2006-01-01T00:00:00Z</time></trkpt>
<trkpt lat="47.42780000" lon="7.05355000"><ele>551</ele><time>2006-01-01T00:00:00Z</time></trkpt>
<trkpt lat="47.42798330" lon="7.05366670"><ele>552</ele><time>2006-01-01T00:00:00Z</time></trkpt>
<trkpt lat="47.42818330" lon="7.05376670"><ele>556</ele><time>2006-01-01T00:00:00Z</time></trkpt>
<trkpt lat="47.42838330" lon="7.05390000"><ele>560</ele><time>2006-01-01T00:00:00Z</time></trkpt>
<trkpt lat="47.42856670" lon="7.05398330"><ele>562</ele><time>2006-01-01T00:00:00Z</time></trkpt>
<trkpt lat="47.42875000" lon="7.05410000"><ele>565</ele><time>2006-01-01T00:00:00Z</time></trkpt>
<trkpt lat="47.42891670" lon="7.05420000"><ele>564</ele><time>2006-01-01T00:00:00Z</time></trkpt>
<trkpt lat="47.42911670" lon="7.05425000"><ele>561</ele><time>2006-01-01T00:00:00Z</time></trkpt>
<trkpt lat="47.42933330" lon="7.05426670"><ele>559</ele><time>2006-01-01T00:00:00Z</time></trkpt>
<trkpt lat="47.42953330" lon="7.05430000"><ele>559</ele><time>2006-01-01T00:00:00Z</time></trkpt>
<trkpt lat="47.42971670" lon="7.05425000"><ele>559</ele><time>2006-01-01T00:00:00Z</time></trkpt>
<trkpt lat="47.42988330" lon="7.05411670"><ele>558</ele><time>2006-01-01T00:00:00Z</time></trkpt>
<trkpt lat="47.43003330" lon="7.05390000"><ele>558</ele><time>2006-01-01T00:00:00Z</time></trkpt>
<trkpt lat="47.43015000" lon="7.05366670"><ele>556</ele><time>2006-01-01T00:00:00Z</time></trkpt>
<trkpt lat="47.43028330" lon="7.05336670"><ele>555</ele><time>2006-01-01T00:00:00Z</time></trkpt>
<trkpt lat="47.43040000" lon="7.05315000"><ele>553</ele><time>2006-01-01T00:00:00Z</time></trkpt>
<trkpt lat="47.43053330" lon="7.05290000"><ele>555</ele><time>2006-01-01T00:00:00Z</time></trkpt>
<trkpt lat="47.43065000" lon="7.05261670"><ele>556</ele><time>2006-01-01T00:00:00Z</time></trkpt>
<trkpt lat="47.43073330" lon="7.05231670"><ele>557</ele><time>2006-01-01T00:00:00Z</time></trkpt>
<trkpt lat="47.43081670" lon="7.05203330"><ele>559</ele><time>2006-01-01T00:00:00Z</time></trkpt>
<trkpt lat="47.43086670" lon="7.05173330"><ele>561</ele><time>2006-01-01T00:00:00Z</time></trkpt>
<trkpt lat="47.43090000" lon="7.05140000"><ele>562</ele><time>2006-01-01T00:00:00Z</time></trkpt>
<trkpt lat="47.43090000" lon="7.05108330"><ele>562</ele><time>2006-01-01T00:00:00Z</time></trkpt>
<trkpt lat="47.43088330" lon="7.05080000"><ele>561</ele><time>2006-01-01T00:00:00Z</time></trkpt>
<trkpt lat="47.43080000" lon="7.05053330"><ele>562</ele><time>2006-01-01T00:00:00Z</time></trkpt>
<trkpt lat="47.43063330" lon="7.05051670"><ele>540</ele><time>2006-01-01T00:00:00Z</time></trkpt>
<trkpt lat="47.43060000" lon="7.05021670"><ele>544</ele><time>2006-01-01T00:00:00Z</time></trkpt>
<trkpt lat="47.43050000" lon="7.04995000"><ele>548</ele><time>2006-01-01T00:00:00Z</time></trkpt>
<trkpt lat="47.43041670" lon="7.04966670"><ele>553</ele><time>2006-01-01T00:00:00Z</time></trkpt>
<trkpt lat="47.43033330" lon="7.04936670"><ele>557</ele><time>2006-01-01T00:00:00Z</time></trkpt>
<trkpt lat="47.43023330" lon="7.04911670"><ele>560</ele><time>2006-01-01T00:00:00Z</time></trkpt>
<trkpt lat="47.43015000" lon="7.04886670"><ele>564</ele><time>2006-01-01T00:00:00Z</time></trkpt>
<trkpt lat="47.43005000" lon="7.04861670"><ele>566</ele><time>2006-01-01T00:00:00Z</time></trkpt>
<trkpt lat="47.42995000" lon="7.04835000"><ele>568</ele><time>2006-01-01T00:00:00Z</time></trkpt>
<trkpt lat="47.42985000" lon="7.04810000"><ele>570</ele><time>2006-01-01T00:00:00Z</time></trkpt>
<trkpt lat="47.42978330" lon="7.04785000"><ele>573</ele><time>2006-01-01T00:00:00Z</time></trkpt>
<trkpt lat="47.42966670" lon="7.04758330"><ele>578</ele><time>2006-01-01T00:00:00Z</time></trkpt>
<trkpt lat="47.42956670" lon="7.04731670"><ele>584</ele><time>2006-01-01T00:00:00Z</time></trkpt>
<trkpt lat="47.42948330" lon="7.04705000"><ele>589</ele><time>2006-01-01T00:00:00Z</time></trkpt>
<trkpt lat="47.42940000" lon="7.04681670"><ele>586</ele><time>2006-01-01T00:00:00Z</time></trkpt>
<trkpt lat="47.42930000" lon="7.04653330"><ele>591</ele><time>2006-01-01T00:00:00Z</time></trkpt>
<trkpt lat="47.42920000" lon="7.04626670"><ele>588</ele><time>2006-01-01T00:00:00Z</time></trkpt>
<trkpt lat="47.42913330" lon="7.04601670"><ele>587</ele><time>2006-01-01T00:00:00Z</time></trkpt>
<trkpt lat="47.42901670" lon="7.04575000"><ele>585</ele><time>2006-01-01T00:00:00Z</time></trkpt>
<trkpt lat="47.42893330" lon="7.04550000"><ele>583</ele><time>2006-01-01T00:00:00Z</time></trkpt>
<trkpt lat="47.42883330" lon="7.04523330"><ele>585</ele><time>2006-01-01T00:00:00Z</time></trkpt>
<trkpt lat="47.42878330" lon="7.04495000"><ele>592</ele><time>2006-01-01T00:00:00Z</time></trkpt>
<trkpt lat="47.42875000" lon="7.04468330"><ele>591</ele><time>2006-01-01T00:00:00Z</time></trkpt>
<trkpt lat="47.42868330" lon="7.04443330"><ele>591</ele><time>2006-01-01T00:00:00Z</time></trkpt>
<trkpt lat="47.42858330" lon="7.04421670"><ele>583</ele><time>2006-01-01T00:00:00Z</time></trkpt>
<trkpt lat="47.42850000" lon="7.04396670"><ele>578</ele><time>2006-01-01T00:00:00Z</time></trkpt>
<trkpt lat="47.42840000" lon="7.04370000"><ele>577</ele><time>2006-01-01T00:00:00Z</time></trkpt>
<trkpt lat="47.42830000" lon="7.04348330"><ele>576</ele><time>2006-01-01T00:00:00Z</time></trkpt>
<trkpt lat="47.42820000" lon="7.04325000"><ele>578</ele><time>2006-01-01T00:00:00Z</time></trkpt>
<trkpt lat="47.42806670" lon="7.04305000"><ele>578</ele><time>2006-01-01T00:00:00Z</time></trkpt>
<trkpt lat="47.42791670" lon="7.04283330"><ele>575</ele><time>2006-01-01T00:00:00Z</time></trkpt>
<trkpt lat="47.42776670" lon="7.04265000"><ele>571</ele><time>2006-01-01T00:00:00Z</time></trkpt>
<trkpt lat="47.42763330" lon="7.04245000"><ele>572</ele><time>2006-01-01T00:00:00Z</time></trkpt>
<trkpt lat="47.42746670" lon="7.04225000"><ele>568</ele><time>2006-01-01T00:00:00Z</time></trkpt>
<trkpt lat="47.42733330" lon="7.04205000"><ele>564</ele><time>2006-01-01T00:00:00Z</time></trkpt>
<trkpt lat="47.42716670" lon="7.04185000"><ele>560</ele><time>2006-01-01T00:00:00Z</time></trkpt>
<trkpt lat="47.42703330" lon="7.04166670"><ele>559</ele><time>2006-01-01T00:00:00Z</time></trkpt>
<trkpt lat="47.42688330" lon="7.04143330"><ele>560</ele><time>2006-01-01T00:00:00Z</time></trkpt>
<trkpt lat="47.42673330" lon="7.04121670"><ele>556</ele><time>2006-01-01T00:00:00Z</time></trkpt>
<trkpt lat="47.42661670" lon="7.04098330"><ele>552</ele><time>2006-01-01T00:00:00Z</time></trkpt>
<trkpt lat="47.42648330" lon="7.04075000"><ele>552</ele><time>2006-01-01T00:00:00Z</time></trkpt>
<trkpt lat="47.42635000" lon="7.04053330"><ele>565</ele><time>2006-01-01T00:00:00Z</time></trkpt>
<trkpt lat="47.42621670" lon="7.04028330"><ele>576</ele><time>2006-01-01T00:00:00Z</time></trkpt>
<trkpt lat="47.42610000" lon="7.04005000"><ele>584</ele><time>2006-01-01T00:00:00Z</time></trkpt>
<trkpt lat="47.42596670" lon="7.03986670"><ele>585</ele><time>2006-01-01T00:00:00Z</time></trkpt>
<trkpt lat="47.42583330" lon="7.03968330"><ele>587</ele><time>2006-01-01T00:00:00Z</time></trkpt>
<trkpt lat="47.42581670" lon="7.03936670"><ele>596</ele><time>2006-01-01T00:00:00Z</time></trkpt>
<trkpt lat="47.42580000" lon="7.03906670"><ele>611</ele><time>2006-01-01T00:00:00Z</time></trkpt>
<trkpt lat="47.42580000" lon="7.03875000"><ele>608</ele><time>2006-01-01T00:00:00Z</time></trkpt>
<trkpt lat="47.42586670" lon="7.03846670"><ele>600</ele><time>2006-01-01T00:00:00Z</time></trkpt>
<trkpt lat="47.42595000" lon="7.03818330"><ele>594</ele><time>2006-01-01T00:00:00Z</time></trkpt>
<trkpt lat="47.42600000" lon="7.03791670"><ele>587</ele><time>2006-01-01T00:00:00Z</time></trkpt>
<trkpt lat="47.42606670" lon="7.03763330"><ele>584</ele><time>2006-01-01T00:00:00Z</time></trkpt>
<trkpt lat="47.42611670" lon="7.03731670"><ele>580</ele><time>2006-01-01T00:00:00Z</time></trkpt>
<trkpt lat="47.42615000" lon="7.03696670"><ele>574</ele><time>2006-01-01T00:00:00Z</time></trkpt>
<trkpt lat="47.42620000" lon="7.03666670"><ele>571</ele><time>2006-01-01T00:00:00Z</time></trkpt>
<trkpt lat="47.42626670" lon="7.03630000"><ele>569</ele><time>2006-01-01T00:00:00Z</time></trkpt>
<trkpt lat="47.42630000" lon="7.03598330"><ele>567</ele><time>2006-01-01T00:00:00Z</time></trkpt>
<trkpt lat="47.42636670" lon="7.03561670"><ele>567</ele><time>2006-01-01T00:00:00Z</time></trkpt>
<trkpt lat="47.42643330" lon="7.03535000"><ele>567</ele><time>2006-01-01T00:00:00Z</time></trkpt>
<trkpt lat="47.42650000" lon="7.03508330"><ele>565</ele><time>2006-01-01T00:00:00Z</time></trkpt>
<trkpt lat="47.42656670" lon="7.03471670"><ele>564</ele><time>2006-01-01T00:00:00Z</time></trkpt>
<trkpt lat="47.42663330" lon="7.03443330"><ele>564</ele><time>2006-01-01T00:00:00Z</time></trkpt>
<trkpt lat="47.42670000" lon="7.03408330"><ele>565</ele><time>2006-01-01T00:00:00Z</time></trkpt>
<trkpt lat="47.42675000" lon="7.03376670"><ele>564</ele><time>2006-01-01T00:00:00Z</time></trkpt>
<trkpt lat="47.42683330" lon="7.03345000"><ele>565</ele><time>2006-01-01T00:00:00Z</time></trkpt>
<trkpt lat="47.42695000" lon="7.03315000"><ele>564</ele><time>2006-01-01T00:00:00Z</time></trkpt>
<trkpt lat="47.42708330" lon="7.03286670"><ele>563</ele><time>2006-01-01T00:00:00Z</time></trkpt>
<trkpt lat="47.42718330" lon="7.03260000"><ele>563</ele><time>2006-01-01T00:00:00Z</time></trkpt>
<trkpt lat="47.42728330" lon="7.03235000"><ele>570</ele><time>2006-01-01T00:00:00Z</time></trkpt>
<trkpt lat="47.42735000" lon="7.03206670"><ele>572</ele><time>2006-01-01T00:00:00Z</time></trkpt>
<trkpt lat="47.42743330" lon="7.03181670"><ele>572</ele><time>2006-01-01T00:00:00Z</time></trkpt>
<trkpt lat="47.42753330" lon="7.03156670"><ele>574</ele><time>2006-01-01T00:00:00Z</time></trkpt>
<trkpt lat="47.42765000" lon="7.03130000"><ele>579</ele><time>2006-01-01T00:00:00Z</time></trkpt>
<trkpt lat="47.42775000" lon="7.03106670"><ele>585</ele><time>2006-01-01T00:00:00Z</time></trkpt>
<trkpt lat="47.42786670" lon="7.03081670"><ele>590</ele><time>2006-01-01T00:00:00Z</time></trkpt>
<trkpt lat="47.42795000" lon="7.03056670"><ele>594</ele><time>2006-01-01T00:00:00Z</time></trkpt>
<trkpt lat="47.42795000" lon="7.03025000"><ele>592</ele><time>2006-01-01T00:00:00Z</time></trkpt>
<trkpt lat="47.42800000" lon="7.02996670"><ele>592</ele><time>2006-01-01T00:00:00Z</time></trkpt>
<trkpt lat="47.42803330" lon="7.02965000"><ele>592</ele><time>2006-01-01T00:00:00Z</time></trkpt>
<trkpt lat="47.42803330" lon="7.02935000"><ele>594</ele><time>2006-01-01T00:00:00Z</time></trkpt>
<trkpt lat="47.42801670" lon="7.02903330"><ele>593</ele><time>2006-01-01T00:00:00Z</time></trkpt>
<trkpt lat="47.42791670" lon="7.02876670"><ele>588</ele><time>2006-01-01T00:00:00Z</time></trkpt>
<trkpt lat="47.42783330" lon="7.02851670"><ele>584</ele><time>2006-01-01T00:00:00Z</time></trkpt>
<trkpt lat="47.42775000" lon="7.02821670"><ele>581</ele><time>2006-01-01T00:00:00Z</time></trkpt>
<trkpt lat="47.42768330" lon="7.02791670"><ele>579</ele><time>2006-01-01T00:00:00Z</time></trkpt>
<trkpt lat="47.42761670" lon="7.02761670"><ele>579</ele><time>2006-01-01T00:00:00Z</time></trkpt>
<trkpt lat="47.42756670" lon="7.02731670"><ele>580</ele><time>2006-01-01T00:00:00Z</time></trkpt>
<trkpt lat="47.42746670" lon="7.02705000"><ele>582</ele><time>2006-01-01T00:00:00Z</time></trkpt>
<trkpt lat="47.42736670" lon="7.02680000"><ele>584</ele><time>2006-01-01T00:00:00Z</time></trkpt>
<trkpt lat="47.42738330" lon="7.02653330"><ele>583</ele><time>2006-01-01T00:00:00Z</time></trkpt>
<trkpt lat="47.42751670" lon="7.02635000"><ele>582</ele><time>2006-01-01T00:00:00Z</time></trkpt>
<trkpt lat="47.42768330" lon="7.02618330"><ele>581</ele><time>2006-01-01T00:00:00Z</time></trkpt>
<trkpt lat="47.42786670" lon="7.02605000"><ele>580</ele><time>2006-01-01T00:00:00Z</time></trkpt>
<trkpt lat="47.42806670" lon="7.02591670"><ele>580</ele><time>2006-01-01T00:00:00Z</time></trkpt>
<trkpt lat="47.42823330" lon="7.02580000"><ele>580</ele><time>2006-01-01T00:00:00Z</time></trkpt>
<trkpt lat="47.42840000" lon="7.02570000"><ele>581</ele><time>2006-01-01T00:00:00Z</time></trkpt>
<trkpt lat="47.42856670" lon="7.02555000"><ele>581</ele><time>2006-01-01T00:00:00Z</time></trkpt>
<trkpt lat="47.42871670" lon="7.02533330"><ele>582</ele><time>2006-01-01T00:00:00Z</time></trkpt>
<trkpt lat="47.42875000" lon="7.02503330"><ele>582</ele><time>2006-01-01T00:00:00Z</time></trkpt>
<trkpt lat="47.42880000" lon="7.02476670"><ele>590</ele><time>2006-01-01T00:00:00Z</time></trkpt>
<trkpt lat="47.42883330" lon="7.02448330"><ele>604</ele><time>2006-01-01T00:00:00Z</time></trkpt>
<trkpt lat="47.42885000" lon="7.02421670"><ele>609</ele><time>2006-01-01T00:00:00Z</time></trkpt>
<trkpt lat="47.42886670" lon="7.02393330"><ele>617</ele><time>2006-01-01T00:00:00Z</time></trkpt>
<trkpt lat="47.42888330" lon="7.02366670"><ele>617</ele><time>2006-01-01T00:00:00Z</time></trkpt>
<trkpt lat="47.42891670" lon="7.02338330"><ele>622</ele><time>2006-01-01T00:00:00Z</time></trkpt>
<trkpt lat="47.42891670" lon="7.02311670"><ele>628</ele><time>2006-01-01T00:00:00Z</time></trkpt>
<trkpt lat="47.42890000" lon="7.02283330"><ele>633</ele><time>2006-01-01T00:00:00Z</time></trkpt>
<trkpt lat="47.42886670" lon="7.02256670"><ele>631</ele><time>2006-01-01T00:00:00Z</time></trkpt>
<trkpt lat="47.42888330" lon="7.02230000"><ele>628</ele><time>2006-01-01T00:00:00Z</time></trkpt>
<trkpt lat="47.42883330" lon="7.02203330"><ele>627</ele><time>2006-01-01T00:00:00Z</time></trkpt>
<trkpt lat="47.42881670" lon="7.02176670"><ele>624</ele><time>2006-01-01T00:00:00Z</time></trkpt>
<trkpt lat="47.42881670" lon="7.02146670"><ele>625</ele><time>2006-01-01T00:00:00Z</time></trkpt>
<trkpt lat="47.42880000" lon="7.02120000"><ele>624</ele><time>2006-01-01T00:00:00Z</time></trkpt>
<trkpt lat="47.42875000" lon="7.02093330"><ele>625</ele><time>2006-01-01T00:00:00Z</time></trkpt>
<trkpt lat="47.42870000" lon="7.02066670"><ele>620</ele><time>2006-01-01T00:00:00Z</time></trkpt>
<trkpt lat="47.42865000" lon="7.02041670"><ele>622</ele><time>2006-01-01T00:00:00Z</time></trkpt>
<trkpt lat="47.42866670" lon="7.02013330"><ele>620</ele><time>2006-01-01T00:00:00Z</time></trkpt>
<trkpt lat="47.42870000" lon="7.01986670"><ele>623</ele><time>2006-01-01T00:00:00Z</time></trkpt>
<trkpt lat="47.42870000" lon="7.01958330"><ele>626</ele><time>2006-01-01T00:00:00Z</time></trkpt>
<trkpt lat="47.42863330" lon="7.01930000"><ele>625</ele><time>2006-01-01T00:00:00Z</time></trkpt>
<trkpt lat="47.42853330" lon="7.01905000"><ele>621</ele><time>2006-01-01T00:00:00Z</time></trkpt>
<trkpt lat="47.42846670" lon="7.01876670"><ele>623</ele><time>2006-01-01T00:00:00Z</time></trkpt>
<trkpt lat="47.42838330" lon="7.01850000"><ele>623</ele><time>2006-01-01T00:00:00Z</time></trkpt>
<trkpt lat="47.42830000" lon="7.01825000"><ele>626</ele><time>2006-01-01T00:00:00Z</time></trkpt>
<trkpt lat="47.42820000" lon="7.01800000"><ele>626</ele><time>2006-01-01T00:00:00Z</time></trkpt>
<trkpt lat="47.42813330" lon="7.01775000"><ele>631</ele><time>2006-01-01T00:00:00Z</time></trkpt>
<trkpt lat="47.42798330" lon="7.01756670"><ele>629</ele><time>2006-01-01T00:00:00Z</time></trkpt>
<trkpt lat="47.42791670" lon="7.01728330"><ele>618</ele><time>2006-01-01T00:00:00Z</time></trkpt>
<trkpt lat="47.42785000" lon="7.01700000"><ele>617</ele><time>2006-01-01T00:00:00Z</time></trkpt>
<trkpt lat="47.42778330" lon="7.01670000"><ele>618</ele><time>2006-01-01T00:00:00Z</time></trkpt>
<trkpt lat="47.42770000" lon="7.01643330"><ele>616</ele><time>2006-01-01T00:00:00Z</time></trkpt>
<trkpt lat="47.42760000" lon="7.01618330"><ele>614</ele><time>2006-01-01T00:00:00Z</time></trkpt>
<trkpt lat="47.42748330" lon="7.01596670"><ele>619</ele><time>2006-01-01T00:00:00Z</time></trkpt>
<trkpt lat="47.42741670" lon="7.01571670"><ele>619</ele><time>2006-01-01T00:00:00Z</time></trkpt>
<trkpt lat="47.42736670" lon="7.01546670"><ele>617</ele><time>2006-01-01T00:00:00Z</time></trkpt>
<trkpt lat="47.42733330" lon="7.01520000"><ele>618</ele><time>2006-01-01T00:00:00Z</time></trkpt>
<trkpt lat="47.42723330" lon="7.01495000"><ele>616</ele><time>2006-01-01T00:00:00Z</time></trkpt>
<trkpt lat="47.42718330" lon="7.01470000"><ele>615</ele><time>2006-01-01T00:00:00Z</time></trkpt>
<trkpt lat="47.42713330" lon="7.01438330"><ele>616</ele><time>2006-01-01T00:00:00Z</time></trkpt>
<trkpt lat="47.42710000" lon="7.01408330"><ele>624</ele><time>2006-01-01T00:00:00Z</time></trkpt>
<trkpt lat="47.42705000" lon="7.01381670"><ele>627</ele><time>2006-01-01T00:00:00Z</time></trkpt>
<trkpt lat="47.42696670" lon="7.01355000"><ele>627</ele><time>2006-01-01T00:00:00Z</time></trkpt>
<trkpt lat="47.42690000" lon="7.01328330"><ele>627</ele><time>2006-01-01T00:00:00Z</time></trkpt>
<trkpt lat="47.42683330" lon="7.01301670"><ele>626</ele><time>2006-01-01T00:00:00Z</time></trkpt>
<trkpt lat="47.42675000" lon="7.01271670"><ele>625</ele><time>2006-01-01T00:00:00Z</time></trkpt>
<trkpt lat="47.42668330" lon="7.01243330"><ele>623</ele><time>2006-01-01T00:00:00Z</time></trkpt>
<trkpt lat="47.42658330" lon="7.01216670"><ele>621</ele><time>2006-01-01T00:00:00Z</time></trkpt>
<trkpt lat="47.42648330" lon="7.01193330"><ele>621</ele><time>2006-01-01T00:00:00Z</time></trkpt>
<trkpt lat="47.42631670" lon="7.01171670"><ele>623</ele><time>2006-01-01T00:00:00Z</time></trkpt>
<trkpt lat="47.42620000" lon="7.01151670"><ele>626</ele><time>2006-01-01T00:00:00Z</time></trkpt>
<trkpt lat="47.42608330" lon="7.01125000"><ele>629</ele><time>2006-01-01T00:00:00Z</time></trkpt>
<trkpt lat="47.42596670" lon="7.01100000"><ele>629</ele><time>2006-01-01T00:00:00Z</time></trkpt>
<trkpt lat="47.42586670" lon="7.01071670"><ele>630</ele><time>2006-01-01T00:00:00Z</time></trkpt>
<trkpt lat="47.42576670" lon="7.01043330"><ele>631</ele><time>2006-01-01T00:00:00Z</time></trkpt>
<trkpt lat="47.42566670" lon="7.01015000"><ele>631</ele><time>2006-01-01T00:00:00Z</time></trkpt>
<trkpt lat="47.42558330" lon="7.00986670"><ele>630</ele><time>2006-01-01T00:00:00Z</time></trkpt>
<trkpt lat="47.42546670" lon="7.00960000"><ele>628</ele><time>2006-01-01T00:00:00Z</time></trkpt>
<trkpt lat="47.42536670" lon="7.00933330"><ele>626</ele><time>2006-01-01T00:00:00Z</time></trkpt>
<trkpt lat="47.42526670" lon="7.00908330"><ele>625</ele><time>2006-01-01T00:00:00Z</time></trkpt>
<trkpt lat="47.42516670" lon="7.00881670"><ele>625</ele><time>2006-01-01T00:00:00Z</time></trkpt>
<trkpt lat="47.42508330" lon="7.00856670"><ele>626</ele><time>2006-01-01T00:00:00Z</time></trkpt>
<trkpt lat="47.42498330" lon="7.00831670"><ele>625</ele><time>2006-01-01T00:00:00Z</time></trkpt>
<trkpt lat="47.42488330" lon="7.00808330"><ele>624</ele><time>2006-01-01T00:00:00Z</time></trkpt>
<trkpt lat="47.42478330" lon="7.00778330"><ele>623</ele><time>2006-01-01T00:00:00Z</time></trkpt>
<trkpt lat="47.42466670" lon="7.00750000"><ele>625</ele><time>2006-01-01T00:00:00Z</time></trkpt>
<trkpt lat="47.42458330" lon="7.00726670"><ele>626</ele><time>2006-01-01T00:00:00Z</time></trkpt>
<trkpt lat="47.42448330" lon="7.00700000"><ele>630</ele><time>2006-01-01T00:00:00Z</time></trkpt>
<trkpt lat="47.42443330" lon="7.00673330"><ele>630</ele><time>2006-01-01T00:00:00Z</time></trkpt>
<trkpt lat="47.42435000" lon="7.00648330"><ele>629</ele><time>2006-01-01T00:00:00Z</time></trkpt>
<trkpt lat="47.42425000" lon="7.00626670"><ele>626</ele><time>2006-01-01T00:00:00Z</time></trkpt>
<trkpt lat="47.42415000" lon="7.00601670"><ele>626</ele><time>2006-01-01T00:00:00Z</time></trkpt>
<trkpt lat="47.42405000" lon="7.00578330"><ele>629</ele><time>2006-01-01T00:00:00Z</time></trkpt>
<trkpt lat="47.42400000" lon="7.00551670"><ele>633</ele><time>2006-01-01T00:00:00Z</time></trkpt>
<trkpt lat="47.42395000" lon="7.00523330"><ele>634</ele><time>2006-01-01T00:00:00Z</time></trkpt>
<trkpt lat="47.42391670" lon="7.00493330"><ele>635</ele><time>2006-01-01T00:00:00Z</time></trkpt>
<trkpt lat="47.42385000" lon="7.00463330"><ele>633</ele><time>2006-01-01T00:00:00Z</time></trkpt>
<trkpt lat="47.42375000" lon="7.00435000"><ele>631</ele><time>2006-01-01T00:00:00Z</time></trkpt>
<trkpt lat="47.42360000" lon="7.00408330"><ele>628</ele><time>2006-01-01T00:00:00Z</time></trkpt>
<trkpt lat="47.42348330" lon="7.00388330"><ele>626</ele><time>2006-01-01T00:00:00Z</time></trkpt>
<trkpt lat="47.42333330" lon="7.00363330"><ele>624</ele><time>2006-01-01T00:00:00Z</time></trkpt>
<trkpt lat="47.42316670" lon="7.00336670"><ele>624</ele><time>2006-01-01T00:00:00Z</time></trkpt>
<trkpt lat="47.42301670" lon="7.00310000"><ele>623</ele><time>2006-01-01T00:00:00Z</time></trkpt>
<trkpt lat="47.42290000" lon="7.00286670"><ele>626</ele><time>2006-01-01T00:00:00Z</time></trkpt>
<trkpt lat="47.42283330" lon="7.00260000"><ele>633</ele><time>2006-01-01T00:00:00Z</time></trkpt>
<trkpt lat="47.42273330" lon="7.00231670"><ele>640</ele><time>2006-01-01T00:00:00Z</time></trkpt>
<trkpt lat="47.42261670" lon="7.00208330"><ele>642</ele><time>2006-01-01T00:00:00Z</time></trkpt>
<trkpt lat="47.42250000" lon="7.00185000"><ele>643</ele><time>2006-01-01T00:00:00Z</time></trkpt>
<trkpt lat="47.42236670" lon="7.00158330"><ele>642</ele><time>2006-01-01T00:00:00Z</time></trkpt>
<trkpt lat="47.42223330" lon="7.00135000"><ele>645</ele><time>2006-01-01T00:00:00Z</time></trkpt>
<trkpt lat="47.42213330" lon="7.00110000"><ele>655</ele><time>2006-01-01T00:00:00Z</time></trkpt>
<trkpt lat="47.42203330" lon="7.00086670"><ele>650</ele><time>2006-01-01T00:00:00Z</time></trkpt>
<trkpt lat="47.42191670" lon="7.00063330"><ele>645</ele><time>2006-01-01T00:00:00Z</time></trkpt>
<trkpt lat="47.42176670" lon="7.00046670"><ele>639</ele><time>2006-01-01T00:00:00Z</time></trkpt>
<trkpt lat="47.42160000" lon="7.00033330"><ele>636</ele><time>2006-01-01T00:00:00Z</time></trkpt>
<trkpt lat="47.42151670" lon="7.00008330"><ele>642</ele><time>2006-01-01T00:00:00Z</time></trkpt>
<trkpt lat="47.42131670" lon="7.00003330"><ele>637</ele><time>2006-01-01T00:00:00Z</time></trkpt>
<trkpt lat="47.42113330" lon="7.00000000"><ele>633</ele><time>2006-01-01T00:00:00Z</time></trkpt>
<trkpt lat="47.42095000" lon="6.99995000"><ele>630</ele><time>2006-01-01T00:00:00Z</time></trkpt>
<trkpt lat="47.42075000" lon="6.99988330"><ele>631</ele><time>2006-01-01T00:00:00Z</time></trkpt>
<trkpt lat="47.42058330" lon="6.99978330"><ele>633</ele><time>2006-01-01T00:00:00Z</time></trkpt>
<trkpt lat="47.42038330" lon="6.99975000"><ele>626</ele><time>2006-01-01T00:00:00Z</time></trkpt>
<trkpt lat="47.42020000" lon="6.99983330"><ele>631</ele><time>2006-01-01T00:00:00Z</time></trkpt>
<trkpt lat="47.42001670" lon="6.99991670"><ele>641</ele><time>2006-01-01T00:00:00Z</time></trkpt>
<trkpt lat="47.41985000" lon="7.00003330"><ele>643</ele><time>2006-01-01T00:00:00Z</time></trkpt>
<trkpt lat="47.41966670" lon="6.99990000"><ele>620</ele><time>2006-01-01T00:00:00Z</time></trkpt>
<trkpt lat="47.41946670" lon="6.99986670"><ele>617</ele><time>2006-01-01T00:00:00Z</time></trkpt>
<trkpt lat="47.41928330" lon="6.99985000"><ele>616</ele><time>2006-01-01T00:00:00Z</time></trkpt>
<trkpt lat="47.41908330" lon="6.99996670"><ele>615</ele><time>2006-01-01T00:00:00Z</time></trkpt>
<trkpt lat="47.41890000" lon="7.00015000"><ele>614</ele><time>2006-01-01T00:00:00Z</time></trkpt>
<trkpt lat="47.41871670" lon="7.00033330"><ele>613</ele><time>2006-01-01T00:00:00Z</time></trkpt>
<trkpt lat="47.41850000" lon="7.00046670"><ele>613</ele><time>2006-01-01T00:00:00Z</time></trkpt>
<trkpt lat="47.41826670" lon="7.00055000"><ele>613</ele><time>2006-01-01T00:00:00Z</time></trkpt>
<trkpt lat="47.41808330" lon="7.00055000"><ele>613</ele><time>2006-01-01T00:00:00Z</time></trkpt>
<trkpt lat="47.41801670" lon="7.00025000"><ele>615</ele><time>2006-01-01T00:00:00Z</time></trkpt>
<trkpt lat="47.41800000" lon="6.99995000"><ele>619</ele><time>2006-01-01T00:00:00Z</time></trkpt>
<trkpt lat="47.41798330" lon="6.99961670"><ele>620</ele><time>2006-01-01T00:00:00Z</time></trkpt>
<trkpt lat="47.41795000" lon="6.99926670"><ele>616</ele><time>2006-01-01T00:00:00Z</time></trkpt>
<trkpt lat="47.41793330" lon="6.99900000"><ele>614</ele><time>2006-01-01T00:00:00Z</time></trkpt>
<trkpt lat="47.41790000" lon="6.99866670"><ele>611</ele><time>2006-01-01T00:00:00Z</time></trkpt>
<trkpt lat="47.41786670" lon="6.99831670"><ele>608</ele><time>2006-01-01T00:00:00Z</time></trkpt>
<trkpt lat="47.41783330" lon="6.99796670"><ele>606</ele><time>2006-01-01T00:00:00Z</time></trkpt>
<trkpt lat="47.41780000" lon="6.99770000"><ele>605</ele><time>2006-01-01T00:00:00Z</time></trkpt>
<trkpt lat="47.41778330" lon="6.99743330"><ele>604</ele><time>2006-01-01T00:00:00Z</time></trkpt>
<trkpt lat="47.41775000" lon="6.99716670"><ele>603</ele><time>2006-01-01T00:00:00Z</time></trkpt>
<trkpt lat="47.41771670" lon="6.99688330"><ele>602</ele><time>2006-01-01T00:00:00Z</time></trkpt>
<trkpt lat="47.41770000" lon="6.99660000"><ele>602</ele><time>2006-01-01T00:00:00Z</time></trkpt>
<trkpt lat="47.41768330" lon="6.99630000"><ele>600</ele><time>2006-01-01T00:00:00Z</time></trkpt>
<trkpt lat="47.41771670" lon="6.99600000"><ele>600</ele><time>2006-01-01T00:00:00Z</time></trkpt>
<trkpt lat="47.41775000" lon="6.99571670"><ele>602</ele><time>2006-01-01T00:00:00Z</time></trkpt>
<trkpt lat="47.41773330" lon="6.99545000"><ele>606</ele><time>2006-01-01T00:00:00Z</time></trkpt>
<trkpt lat="47.41771670" lon="6.99515000"><ele>615</ele><time>2006-01-01T00:00:00Z</time></trkpt>
<trkpt lat="47.41756670" lon="6.99491670"><ele>618</ele><time>2006-01-01T00:00:00Z</time></trkpt>
<trkpt lat="47.41748330" lon="6.99466670"><ele>619</ele><time>2006-01-01T00:00:00Z</time></trkpt>
<trkpt lat="47.41736670" lon="6.99445000"><ele>625</ele><time>2006-01-01T00:00:00Z</time></trkpt>
<trkpt lat="47.41728330" lon="6.99421670"><ele>626</ele><time>2006-01-01T00:00:00Z</time></trkpt>
<trkpt lat="47.41718330" lon="6.99398330"><ele>623</ele><time>2006-01-01T00:00:00Z</time></trkpt>
<trkpt lat="47.41710000" lon="6.99371670"><ele>620</ele><time>2006-01-01T00:00:00Z</time></trkpt>
<trkpt lat="47.41701670" lon="6.99343330"><ele>617</ele><time>2006-01-01T00:00:00Z</time></trkpt>
<trkpt lat="47.41695000" lon="6.99313330"><ele>613</ele><time>2006-01-01T00:00:00Z</time></trkpt>
<trkpt lat="47.41685000" lon="6.99285000"><ele>609</ele><time>2006-01-01T00:00:00Z</time></trkpt>
<trkpt lat="47.41671670" lon="6.99261670"><ele>607</ele><time>2006-01-01T00:00:00Z</time></trkpt>
<trkpt lat="47.41656670" lon="6.99246670"><ele>606</ele><time>2006-01-01T00:00:00Z</time></trkpt>
<trkpt lat="47.41648330" lon="6.99221670"><ele>610</ele><time>2006-01-01T00:00:00Z</time></trkpt>
<trkpt lat="47.41633330" lon="6.99201670"><ele>609</ele><time>2006-01-01T00:00:00Z</time></trkpt>
<trkpt lat="47.41630000" lon="6.99175000"><ele>611</ele><time>2006-01-01T00:00:00Z</time></trkpt>
<trkpt lat="47.41631670" lon="6.99148330"><ele>608</ele><time>2006-01-01T00:00:00Z</time></trkpt>
<trkpt lat="47.41628330" lon="6.99120000"><ele>608</ele><time>2006-01-01T00:00:00Z</time></trkpt>
<trkpt lat="47.41623330" lon="6.99093330"><ele>607</ele><time>2006-01-01T00:00:00Z</time></trkpt>
<trkpt lat="47.41616670" lon="6.99065000"><ele>608</ele><time>2006-01-01T00:00:00Z</time></trkpt>
<trkpt lat="47.41610000" lon="6.99038330"><ele>606</ele><time>2006-01-01T00:00:00Z</time></trkpt>
<trkpt lat="47.41605000" lon="6.99011670"><ele>603</ele><time>2006-01-01T00:00:00Z</time></trkpt>
<trkpt lat="47.41600000" lon="6.98983330"><ele>599</ele><time>2006-01-01T00:00:00Z</time></trkpt>
<trkpt lat="47.41593330" lon="6.98953330"><ele>596</ele><time>2006-01-01T00:00:00Z</time></trkpt>
<trkpt lat="47.41580000" lon="6.98930000"><ele>596</ele><time>2006-01-01T00:00:00Z</time></trkpt>
<trkpt lat="47.41560000" lon="6.98923330"><ele>596</ele><time>2006-01-01T00:00:00Z</time></trkpt>
<trkpt lat="47.41546670" lon="6.98943330"><ele>598</ele><time>2006-01-01T00:00:00Z</time></trkpt>
<trkpt lat="47.41540000" lon="6.98968330"><ele>598</ele><time>2006-01-01T00:00:00Z</time></trkpt>
<trkpt lat="47.41523330" lon="6.98955000"><ele>597</ele><time>2006-01-01T00:00:00Z</time></trkpt>
<trkpt lat="47.41508330" lon="6.98943330"><ele>597</ele><time>2006-01-01T00:00:00Z</time></trkpt>
<trkpt lat="47.41490000" lon="6.98943330"><ele>598</ele><time>2006-01-01T00:00:00Z</time></trkpt>
<trkpt lat="47.41470000" lon="6.98948330"><ele>598</ele><time>2006-01-01T00:00:00Z</time></trkpt>
<trkpt lat="47.41450000" lon="6.98951670"><ele>598</ele><time>2006-01-01T00:00:00Z</time></trkpt>
<trkpt lat="47.41431670" lon="6.98953330"><ele>597</ele><time>2006-01-01T00:00:00Z</time></trkpt>
<trkpt lat="47.41410000" lon="6.98951670"><ele>595</ele><time>2006-01-01T00:00:00Z</time></trkpt>
<trkpt lat="47.41390000" lon="6.98951670"><ele>593</ele><time>2006-01-01T00:00:00Z</time></trkpt>
<trkpt lat="47.41366670" lon="6.98950000"><ele>592</ele><time>2006-01-01T00:00:00Z</time></trkpt>
<trkpt lat="47.41340000" lon="6.98948330"><ele>590</ele><time>2006-01-01T00:00:00Z</time></trkpt>
<trkpt lat="47.41321670" lon="6.98945000"><ele>588</ele><time>2006-01-01T00:00:00Z</time></trkpt>
<trkpt lat="47.41300000" lon="6.98943330"><ele>586</ele><time>2006-01-01T00:00:00Z</time></trkpt>
<trkpt lat="47.41278330" lon="6.98941670"><ele>584</ele><time>2006-01-01T00:00:00Z</time></trkpt>
<trkpt lat="47.41256670" lon="6.98940000"><ele>582</ele><time>2006-01-01T00:00:00Z</time></trkpt>
<trkpt lat="47.41236670" lon="6.98940000"><ele>581</ele><time>2006-01-01T00:00:00Z</time></trkpt>
<trkpt lat="47.41211670" lon="6.98935000"><ele>578</ele><time>2006-01-01T00:00:00Z</time></trkpt>
<trkpt lat="47.41193330" lon="6.98951670"><ele>577</ele><time>2006-01-01T00:00:00Z</time></trkpt>
<trkpt lat="47.41183330" lon="6.98981670"><ele>578</ele><time>2006-01-01T00:00:00Z</time></trkpt>
<trkpt lat="47.41173330" lon="6.99008330"><ele>578</ele><time>2006-01-01T00:00:00Z</time></trkpt>
<trkpt lat="47.41165000" lon="6.99036670"><ele>577</ele><time>2006-01-01T00:00:00Z</time></trkpt>
<trkpt lat="47.41160000" lon="6.99070000"><ele>577</ele><time>2006-01-01T00:00:00Z</time></trkpt>
<trkpt lat="47.41160000" lon="6.99103330"><ele>577</ele><time>2006-01-01T00:00:00Z</time></trkpt>
<trkpt lat="47.41163330" lon="6.99135000"><ele>576</ele><time>2006-01-01T00:00:00Z</time></trkpt>
<trkpt lat="47.41171670" lon="6.99163330"><ele>577</ele><time>2006-01-01T00:00:00Z</time></trkpt>
<trkpt lat="47.41180000" lon="6.99195000"><ele>577</ele><time>2006-01-01T00:00:00Z</time></trkpt>
<trkpt lat="47.41190000" lon="6.99220000"><ele>578</ele><time>2006-01-01T00:00:00Z</time></trkpt>
<trkpt lat="47.41200000" lon="6.99243330"><ele>579</ele><time>2006-01-01T00:00:00Z</time></trkpt>
<trkpt lat="47.41206670" lon="6.99275000"><ele>582</ele><time>2006-01-01T00:00:00Z</time></trkpt>
<trkpt lat="47.41211670" lon="6.99305000"><ele>583</ele><time>2006-01-01T00:00:00Z</time></trkpt>
<trkpt lat="47.41216670" lon="6.99338330"><ele>583</ele><time>2006-01-01T00:00:00Z</time></trkpt>
<trkpt lat="47.41220000" lon="6.99365000"><ele>584</ele><time>2006-01-01T00:00:00Z</time></trkpt>
<trkpt lat="47.41225000" lon="6.99393330"><ele>584</ele><time>2006-01-01T00:00:00Z</time></trkpt>
<trkpt lat="47.41228330" lon="6.99420000"><ele>583</ele><time>2006-01-01T00:00:00Z</time></trkpt>
<trkpt lat="47.41233330" lon="6.99448330"><ele>582</ele><time>2006-01-01T00:00:00Z</time></trkpt>
<trkpt lat="47.41236670" lon="6.99481670"><ele>581</ele><time>2006-01-01T00:00:00Z</time></trkpt>
<trkpt lat="47.41241670" lon="6.99516670"><ele>580</ele><time>2006-01-01T00:00:00Z</time></trkpt>
<trkpt lat="47.41245000" lon="6.99550000"><ele>579</ele><time>2006-01-01T00:00:00Z</time></trkpt>
<trkpt lat="47.41250000" lon="6.99585000"><ele>579</ele><time>2006-01-01T00:00:00Z</time></trkpt>
<trkpt lat="47.41250000" lon="6.99613330"><ele>578</ele><time>2006-01-01T00:00:00Z</time></trkpt>
<trkpt lat="47.41250000" lon="6.99640000"><ele>577</ele><time>2006-01-01T00:00:00Z</time></trkpt>
<trkpt lat="47.41248330" lon="6.99666670"><ele>575</ele><time>2006-01-01T00:00:00Z</time></trkpt>
<trkpt lat="47.41248330" lon="6.99695000"><ele>574</ele><time>2006-01-01T00:00:00Z</time></trkpt>
<trkpt lat="47.41246670" lon="6.99728330"><ele>571</ele><time>2006-01-01T00:00:00Z</time></trkpt>
<trkpt lat="47.41243330" lon="6.99763330"><ele>571</ele><time>2006-01-01T00:00:00Z</time></trkpt>
<trkpt lat="47.41243330" lon="6.99791670"><ele>571</ele><time>2006-01-01T00:00:00Z</time></trkpt>
<trkpt lat="47.41243330" lon="6.99820000"><ele>571</ele><time>2006-01-01T00:00:00Z</time></trkpt>
<trkpt lat="47.41243330" lon="6.99850000"><ele>571</ele><time>2006-01-01T00:00:00Z</time></trkpt>
<trkpt lat="47.41245000" lon="6.99881670"><ele>570</ele><time>2006-01-01T00:00:00Z</time></trkpt>
<trkpt lat="47.41246670" lon="6.99913330"><ele>570</ele><time>2006-01-01T00:00:00Z</time></trkpt>
<trkpt lat="47.41248330" lon="6.99945000"><ele>569</ele><time>2006-01-01T00:00:00Z</time></trkpt>
<trkpt lat="47.41250000" lon="6.99976670"><ele>569</ele><time>2006-01-01T00:00:00Z</time></trkpt>
<trkpt lat="47.41251670" lon="7.00011670"><ele>568</ele><time>2006-01-01T00:00:00Z</time></trkpt>
<trkpt lat="47.41255000" lon="7.00048330"><ele>567</ele><time>2006-01-01T00:00:00Z</time></trkpt>
<trkpt lat="47.41261670" lon="7.00081670"><ele>566</ele><time>2006-01-01T00:00:00Z</time></trkpt>
<trkpt lat="47.41271670" lon="7.00113330"><ele>565</ele><time>2006-01-01T00:00:00Z</time></trkpt>
<trkpt lat="47.41280000" lon="7.00143330"><ele>564</ele><time>2006-01-01T00:00:00Z</time></trkpt>
<trkpt lat="47.41288330" lon="7.00173330"><ele>565</ele><time>2006-01-01T00:00:00Z</time></trkpt>
<trkpt lat="47.41296670" lon="7.00201670"><ele>565</ele><time>2006-01-01T00:00:00Z</time></trkpt>
<trkpt lat="47.41305000" lon="7.00231670"><ele>565</ele><time>2006-01-01T00:00:00Z</time></trkpt>
<trkpt lat="47.41313330" lon="7.00261670"><ele>564</ele><time>2006-01-01T00:00:00Z</time></trkpt>
<trkpt lat="47.41321670" lon="7.00290000"><ele>564</ele><time>2006-01-01T00:00:00Z</time></trkpt>
<trkpt lat="47.41328330" lon="7.00321670"><ele>564</ele><time>2006-01-01T00:00:00Z</time></trkpt>
<trkpt lat="47.41333330" lon="7.00353330"><ele>563</ele><time>2006-01-01T00:00:00Z</time></trkpt>
<trkpt lat="47.41336670" lon="7.00386670"><ele>563</ele><time>2006-01-01T00:00:00Z</time></trkpt>
<trkpt lat="47.41338330" lon="7.00420000"><ele>562</ele><time>2006-01-01T00:00:00Z</time></trkpt>
<trkpt lat="47.41343330" lon="7.00451670"><ele>561</ele><time>2006-01-01T00:00:00Z</time></trkpt>
<trkpt lat="47.41351670" lon="7.00483330"><ele>560</ele><time>2006-01-01T00:00:00Z</time></trkpt>
<trkpt lat="47.41361670" lon="7.00511670"><ele>560</ele><time>2006-01-01T00:00:00Z</time></trkpt>
<trkpt lat="47.41371670" lon="7.00536670"><ele>561</ele><time>2006-01-01T00:00:00Z</time></trkpt>
<trkpt lat="47.41381670" lon="7.00568330"><ele>561</ele><time>2006-01-01T00:00:00Z</time></trkpt>
<trkpt lat="47.41388330" lon="7.00601670"><ele>560</ele><time>2006-01-01T00:00:00Z</time></trkpt>
<trkpt lat="47.41395000" lon="7.00628330"><ele>558</ele><time>2006-01-01T00:00:00Z</time></trkpt>
<trkpt lat="47.41403330" lon="7.00653330"><ele>558</ele><time>2006-01-01T00:00:00Z</time></trkpt>
<trkpt lat="47.41411670" lon="7.00676670"><ele>559</ele><time>2006-01-01T00:00:00Z</time></trkpt>
<trkpt lat="47.41423330" lon="7.00703330"><ele>558</ele><time>2006-01-01T00:00:00Z</time></trkpt>
<trkpt lat="47.41435000" lon="7.00725000"><ele>565</ele><time>2006-01-01T00:00:00Z</time></trkpt>
<trkpt lat="47.41446670" lon="7.00745000"><ele>575</ele><time>2006-01-01T00:00:00Z</time></trkpt>
<trkpt lat="47.41461670" lon="7.00763330"><ele>573</ele><time>2006-01-01T00:00:00Z</time></trkpt>
<trkpt lat="47.41475000" lon="7.00785000"><ele>566</ele><time>2006-01-01T00:00:00Z</time></trkpt>
<trkpt lat="47.41490000" lon="7.00796670"><ele>568</ele><time>2006-01-01T00:00:00Z</time></trkpt>
<trkpt lat="47.41498330" lon="7.00825000"><ele>577</ele><time>2006-01-01T00:00:00Z</time></trkpt>
<trkpt lat="47.41506670" lon="7.00848330"><ele>572</ele><time>2006-01-01T00:00:00Z</time></trkpt>
<trkpt lat="47.41516670" lon="7.00873330"><ele>580</ele><time>2006-01-01T00:00:00Z</time></trkpt>
<trkpt lat="47.41528330" lon="7.00896670"><ele>582</ele><time>2006-01-01T00:00:00Z</time></trkpt>
<trkpt lat="47.41523330" lon="7.00923330"><ele>590</ele><time>2006-01-01T00:00:00Z</time></trkpt>
<trkpt lat="47.41521670" lon="7.00950000"><ele>580</ele><time>2006-01-01T00:00:00Z</time></trkpt>
<trkpt lat="47.41505000" lon="7.00938330"><ele>595</ele><time>2006-01-01T00:00:00Z</time></trkpt>
<trkpt lat="47.41513330" lon="7.00963330"><ele>590</ele><time>2006-01-01T00:00:00Z</time></trkpt>
<trkpt lat="47.41515000" lon="7.00995000"><ele>589</ele><time>2006-01-01T00:00:00Z</time></trkpt>
<trkpt lat="47.41516670" lon="7.01021670"><ele>588</ele><time>2006-01-01T00:00:00Z</time></trkpt>
<trkpt lat="47.41520000" lon="7.01053330"><ele>586</ele><time>2006-01-01T00:00:00Z</time></trkpt>
<trkpt lat="47.41518330" lon="7.01081670"><ele>586</ele><time>2006-01-01T00:00:00Z</time></trkpt>
<trkpt lat="47.41523330" lon="7.01111670"><ele>579</ele><time>2006-01-01T00:00:00Z</time></trkpt>
<trkpt lat="47.41530000" lon="7.01138330"><ele>568</ele><time>2006-01-01T00:00:00Z</time></trkpt>
<trkpt lat="47.41533330" lon="7.01166670"><ele>542</ele><time>2006-01-01T00:00:00Z</time></trkpt>
<trkpt lat="47.41556670" lon="7.01161670"><ele>564</ele><time>2006-01-01T00:00:00Z</time></trkpt>
<trkpt lat="47.41540000" lon="7.01165000"><ele>553</ele><time>2006-01-01T00:00:00Z</time></trkpt>
<trkpt lat="47.41521670" lon="7.01185000"><ele>553</ele><time>2006-01-01T00:00:00Z</time></trkpt>
<trkpt lat="47.41503330" lon="7.01200000"><ele>553</ele><time>2006-01-01T00:00:00Z</time></trkpt>
<trkpt lat="47.41493330" lon="7.01230000"><ele>547</ele><time>2006-01-01T00:00:00Z</time></trkpt>
<trkpt lat="47.41485000" lon="7.01256670"><ele>543</ele><time>2006-01-01T00:00:00Z</time></trkpt>
<trkpt lat="47.41468330" lon="7.01268330"><ele>540</ele><time>2006-01-01T00:00:00Z</time></trkpt>
<trkpt lat="47.41455000" lon="7.01283330"><ele>542</ele><time>2006-01-01T00:00:00Z</time></trkpt>
<trkpt lat="47.41438330" lon="7.01296670"><ele>545</ele><time>2006-01-01T00:00:00Z</time></trkpt>
<trkpt lat="47.41421670" lon="7.01310000"><ele>544</ele><time>2006-01-01T00:00:00Z</time></trkpt>
<trkpt lat="47.41403330" lon="7.01323330"><ele>548</ele><time>2006-01-01T00:00:00Z</time></trkpt>
<trkpt lat="47.41385000" lon="7.01341670"><ele>551</ele><time>2006-01-01T00:00:00Z</time></trkpt>
<trkpt lat="47.41370000" lon="7.01360000"><ele>552</ele><time>2006-01-01T00:00:00Z</time></trkpt>
<trkpt lat="47.41355000" lon="7.01378330"><ele>555</ele><time>2006-01-01T00:00:00Z</time></trkpt>
<trkpt lat="47.41340000" lon="7.01398330"><ele>555</ele><time>2006-01-01T00:00:00Z</time></trkpt>
<trkpt lat="47.41323330" lon="7.01418330"><ele>554</ele><time>2006-01-01T00:00:00Z</time></trkpt>
<trkpt lat="47.41306670" lon="7.01435000"><ele>552</ele><time>2006-01-01T00:00:00Z</time></trkpt>
<trkpt lat="47.41290000" lon="7.01455000"><ele>546</ele><time>2006-01-01T00:00:00Z</time></trkpt>
<trkpt lat="47.41296670" lon="7.01485000"><ele>538</ele><time>2006-01-01T00:00:00Z</time></trkpt>
<trkpt lat="47.41306670" lon="7.01510000"><ele>528</ele><time>2006-01-01T00:00:00Z</time></trkpt>
<trkpt lat="47.41291670" lon="7.01530000"><ele>530</ele><time>2006-01-01T00:00:00Z</time></trkpt>
<trkpt lat="47.41278330" lon="7.01548330"><ele>532</ele><time>2006-01-01T00:00:00Z</time></trkpt>
<trkpt lat="47.41258330" lon="7.01558330"><ele>536</ele><time>2006-01-01T00:00:00Z</time></trkpt>
<trkpt lat="47.41240000" lon="7.01561670"><ele>535</ele><time>2006-01-01T00:00:00Z</time></trkpt>
<trkpt lat="47.41223330" lon="7.01575000"><ele>537</ele><time>2006-01-01T00:00:00Z</time></trkpt>
<trkpt lat="47.41205000" lon="7.01590000"><ele>538</ele><time>2006-01-01T00:00:00Z</time></trkpt>
<trkpt lat="47.41186670" lon="7.01608330"><ele>538</ele><time>2006-01-01T00:00:00Z</time></trkpt>
<trkpt lat="47.41166670" lon="7.01626670"><ele>538</ele><time>2006-01-01T00:00:00Z</time></trkpt>
<trkpt lat="47.41151670" lon="7.01643330"><ele>538</ele><time>2006-01-01T00:00:00Z</time></trkpt>
<trkpt lat="47.41135000" lon="7.01658330"><ele>536</ele><time>2006-01-01T00:00:00Z</time></trkpt>
<trkpt lat="47.41118330" lon="7.01668330"><ele>536</ele><time>2006-01-01T00:00:00Z</time></trkpt>
<trkpt lat="47.41095000" lon="7.01680000"><ele>535</ele><time>2006-01-01T00:00:00Z</time></trkpt>
<trkpt lat="47.41078330" lon="7.01686670"><ele>535</ele><time>2006-01-01T00:00:00Z</time></trkpt>
<trkpt lat="47.41060000" lon="7.01698330"><ele>535</ele><time>2006-01-01T00:00:00Z</time></trkpt>
<trkpt lat="47.41043330" lon="7.01711670"><ele>536</ele><time>2006-01-01T00:00:00Z</time></trkpt>
<trkpt lat="47.41025000" lon="7.01726670"><ele>537</ele><time>2006-01-01T00:00:00Z</time></trkpt>
<trkpt lat="47.41006670" lon="7.01745000"><ele>539</ele><time>2006-01-01T00:00:00Z</time></trkpt>
<trkpt lat="47.40988330" lon="7.01766670"><ele>541</ele><time>2006-01-01T00:00:00Z</time></trkpt>
<trkpt lat="47.40971670" lon="7.01788330"><ele>543</ele><time>2006-01-01T00:00:00Z</time></trkpt>
<trkpt lat="47.40955000" lon="7.01813330"><ele>545</ele><time>2006-01-01T00:00:00Z</time></trkpt>
<trkpt lat="47.40938330" lon="7.01836670"><ele>546</ele><time>2006-01-01T00:00:00Z</time></trkpt>
<trkpt lat="47.40918330" lon="7.01855000"><ele>545</ele><time>2006-01-01T00:00:00Z</time></trkpt>
<trkpt lat="47.40898330" lon="7.01870000"><ele>543</ele><time>2006-01-01T00:00:00Z</time></trkpt>
<trkpt lat="47.40878330" lon="7.01883330"><ele>542</ele><time>2006-01-01T00:00:00Z</time></trkpt>
<trkpt lat="47.40858330" lon="7.01895000"><ele>539</ele><time>2006-01-01T00:00:00Z</time></trkpt>
<trkpt lat="47.40840000" lon="7.01910000"><ele>538</ele><time>2006-01-01T00:00:00Z</time></trkpt>
<trkpt lat="47.40823330" lon="7.01926670"><ele>536</ele><time>2006-01-01T00:00:00Z</time></trkpt>
<trkpt lat="47.40805000" lon="7.01946670"><ele>534</ele><time>2006-01-01T00:00:00Z</time></trkpt>
<trkpt lat="47.40791670" lon="7.01963330"><ele>531</ele><time>2006-01-01T00:00:00Z</time></trkpt>
<trkpt lat="47.40775000" lon="7.01976670"><ele>529</ele><time>2006-01-01T00:00:00Z</time></trkpt>
<trkpt lat="47.40756670" lon="7.01995000"><ele>527</ele><time>2006-01-01T00:00:00Z</time></trkpt>
<trkpt lat="47.40736670" lon="7.02008330"><ele>524</ele><time>2006-01-01T00:00:00Z</time></trkpt>
<trkpt lat="47.40718330" lon="7.02018330"><ele>526</ele><time>2006-01-01T00:00:00Z</time></trkpt>
<trkpt lat="47.40696670" lon="7.02028330"><ele>531</ele><time>2006-01-01T00:00:00Z</time></trkpt>
<trkpt lat="47.40676670" lon="7.02040000"><ele>533</ele><time>2006-01-01T00:00:00Z</time></trkpt>
<trkpt lat="47.40658330" lon="7.02050000"><ele>534</ele><time>2006-01-01T00:00:00Z</time></trkpt>
<trkpt lat="47.40638330" lon="7.02060000"><ele>538</ele><time>2006-01-01T00:00:00Z</time></trkpt>
<trkpt lat="47.40620000" lon="7.02076670"><ele>540</ele><time>2006-01-01T00:00:00Z</time></trkpt>
<trkpt lat="47.40601670" lon="7.02098330"><ele>540</ele><time>2006-01-01T00:00:00Z</time></trkpt>
<trkpt lat="47.40593330" lon="7.02121670"><ele>540</ele><time>2006-01-01T00:00:00Z</time></trkpt>
<trkpt lat="47.40598330" lon="7.02148330"><ele>535</ele><time>2006-01-01T00:00:00Z</time></trkpt>
<trkpt lat="47.40608330" lon="7.02170000"><ele>525</ele><time>2006-01-01T00:00:00Z</time></trkpt>
<trkpt lat="47.40623330" lon="7.02188330"><ele>522</ele><time>2006-01-01T00:00:00Z</time></trkpt>
<trkpt lat="47.40643330" lon="7.02196670"><ele>531</ele><time>2006-01-01T00:00:00Z</time></trkpt>
<trkpt lat="47.40661670" lon="7.02195000"><ele>535</ele><time>2006-01-01T00:00:00Z</time></trkpt>
<trkpt lat="47.40678330" lon="7.02210000"><ele>539</ele><time>2006-01-01T00:00:00Z</time></trkpt>
<trkpt lat="47.40698330" lon="7.02213330"><ele>540</ele><time>2006-01-01T00:00:00Z</time></trkpt>
<trkpt lat="47.40715000" lon="7.02228330"><ele>540</ele><time>2006-01-01T00:00:00Z</time></trkpt>
<trkpt lat="47.40733330" lon="7.02236670"><ele>535</ele><time>2006-01-01T00:00:00Z</time></trkpt>
<trkpt lat="47.40751670" lon="7.02243330"><ele>533</ele><time>2006-01-01T00:00:00Z</time></trkpt>
<trkpt lat="47.40771670" lon="7.02246670"><ele>532</ele><time>2006-01-01T00:00:00Z</time></trkpt>
<trkpt lat="47.40795000" lon="7.02253330"><ele>533</ele><time>2006-01-01T00:00:00Z</time></trkpt>
<trkpt lat="47.40811670" lon="7.02268330"><ele>531</ele><time>2006-01-01T00:00:00Z</time></trkpt>
<trkpt lat="47.40826670" lon="7.02290000"><ele>527</ele><time>2006-01-01T00:00:00Z</time></trkpt>
<trkpt lat="47.40838330" lon="7.02313330"><ele>526</ele><time>2006-01-01T00:00:00Z</time></trkpt>
<trkpt lat="47.40843330" lon="7.02338330"><ele>533</ele><time>2006-01-01T00:00:00Z</time></trkpt>
<trkpt lat="47.40845000" lon="7.02368330"><ele>539</ele><time>2006-01-01T00:00:00Z</time></trkpt>
<trkpt lat="47.40848330" lon="7.02396670"><ele>539</ele><time>2006-01-01T00:00:00Z</time></trkpt>
<trkpt lat="47.40851670" lon="7.02428330"><ele>539</ele><time>2006-01-01T00:00:00Z</time></trkpt>
<trkpt lat="47.40855000" lon="7.02458330"><ele>538</ele><time>2006-01-01T00:00:00Z</time></trkpt>
<trkpt lat="47.40860000" lon="7.02490000"><ele>535</ele><time>2006-01-01T00:00:00Z</time></trkpt>
<trkpt lat="47.40865000" lon="7.02525000"><ele>532</ele><time>2006-01-01T00:00:00Z</time></trkpt>
<trkpt lat="47.40871670" lon="7.02555000"><ele>528</ele><time>2006-01-01T00:00:00Z</time></trkpt>
<trkpt lat="47.40876670" lon="7.02586670"><ele>522</ele><time>2006-01-01T00:00:00Z</time></trkpt>
<trkpt lat="47.40883330" lon="7.02618330"><ele>517</ele><time>2006-01-01T00:00:00Z</time></trkpt>
<trkpt lat="47.40890000" lon="7.02653330"><ele>515</ele><time>2006-01-01T00:00:00Z</time></trkpt>
<trkpt lat="47.40896670" lon="7.02690000"><ele>515</ele><time>2006-01-01T00:00:00Z</time></trkpt>
<trkpt lat="47.40901670" lon="7.02716670"><ele>514</ele><time>2006-01-01T00:00:00Z</time></trkpt>
<trkpt lat="47.40906670" lon="7.02743330"><ele>514</ele><time>2006-01-01T00:00:00Z</time></trkpt>
<trkpt lat="47.40910000" lon="7.02773330"><ele>513</ele><time>2006-01-01T00:00:00Z</time></trkpt>
<trkpt lat="47.40916670" lon="7.02805000"><ele>511</ele><time>2006-01-01T00:00:00Z</time></trkpt>
<trkpt lat="47.40921670" lon="7.02838330"><ele>509</ele><time>2006-01-01T00:00:00Z</time></trkpt>
<trkpt lat="47.40926670" lon="7.02873330"><ele>507</ele><time>2006-01-01T00:00:00Z</time></trkpt>
<trkpt lat="47.40931670" lon="7.02908330"><ele>505</ele><time>2006-01-01T00:00:00Z</time></trkpt>
<trkpt lat="47.40936670" lon="7.02940000"><ele>504</ele><time>2006-01-01T00:00:00Z</time></trkpt>
<trkpt lat="47.40941670" lon="7.02976670"><ele>502</ele><time>2006-01-01T00:00:00Z</time></trkpt>
<trkpt lat="47.40936670" lon="7.03005000"><ele>501</ele><time>2006-01-01T00:00:00Z</time></trkpt>
<trkpt lat="47.40931670" lon="7.03031670"><ele>499</ele><time>2006-01-01T00:00:00Z</time></trkpt>
<trkpt lat="47.40923330" lon="7.03063330"><ele>498</ele><time>2006-01-01T00:00:00Z</time></trkpt>
<trkpt lat="47.40910000" lon="7.03085000"><ele>497</ele><time>2006-01-01T00:00:00Z</time></trkpt>
<trkpt lat="47.40896670" lon="7.03103330"><ele>497</ele><time>2006-01-01T00:00:00Z</time></trkpt>
<trkpt lat="47.40946670" lon="7.03080000"><ele>504</ele><time>2006-01-01T00:00:00Z</time></trkpt>
<trkpt lat="47.40965000" lon="7.03065000"><ele>515</ele><time>2006-01-01T00:00:00Z</time></trkpt>
<trkpt lat="47.40980000" lon="7.03048330"><ele>513</ele><time>2006-01-01T00:00:00Z</time></trkpt>
<trkpt lat="47.40996670" lon="7.03030000"><ele>511</ele><time>2006-01-01T00:00:00Z</time></trkpt>
<trkpt lat="47.41013330" lon="7.03010000"><ele>508</ele><time>2006-01-01T00:00:00Z</time></trkpt>
<trkpt lat="47.41028330" lon="7.02991670"><ele>507</ele><time>2006-01-01T00:00:00Z</time></trkpt>
<trkpt lat="47.41073330" lon="7.02943330"><ele>511</ele><time>2006-01-01T00:00:00Z</time></trkpt>
<trkpt lat="47.41091670" lon="7.02921670"><ele>511</ele><time>2006-01-01T00:00:00Z</time></trkpt>
<trkpt lat="47.41106670" lon="7.02903330"><ele>508</ele><time>2006-01-01T00:00:00Z</time></trkpt>
<trkpt lat="47.41121670" lon="7.02885000"><ele>508</ele><time>2006-01-01T00:00:00Z</time></trkpt>
<trkpt lat="47.41141670" lon="7.02868330"><ele>508</ele><time>2006-01-01T00:00:00Z</time></trkpt>
<trkpt lat="47.41161670" lon="7.02853330"><ele>508</ele><time>2006-01-01T00:00:00Z</time></trkpt>
<trkpt lat="47.41236670" lon="7.02808330"><ele>523</ele><time>2006-01-01T00:00:00Z</time></trkpt>
<trkpt lat="47.41260000" lon="7.02790000"><ele>520</ele><time>2006-01-01T00:00:00Z</time></trkpt>
<trkpt lat="47.41306670" lon="7.02738330"><ele>510</ele><time>2006-01-01T00:00:00Z</time></trkpt>
<trkpt lat="47.41321670" lon="7.02716670"><ele>506</ele><time>2006-01-01T00:00:00Z</time></trkpt>
<trkpt lat="47.41336670" lon="7.02701670"><ele>512</ele><time>2006-01-01T00:00:00Z</time></trkpt>
<trkpt lat="47.41353330" lon="7.02686670"><ele>526</ele><time>2006-01-01T00:00:00Z</time></trkpt>
<trkpt lat="47.41370000" lon="7.02670000"><ele>531</ele><time>2006-01-01T00:00:00Z</time></trkpt>
<trkpt lat="47.41385000" lon="7.02655000"><ele>530</ele><time>2006-01-01T00:00:00Z</time></trkpt>
<trkpt lat="47.41401670" lon="7.02640000"><ele>528</ele><time>2006-01-01T00:00:00Z</time></trkpt>
<trkpt lat="47.41416670" lon="7.02625000"><ele>528</ele><time>2006-01-01T00:00:00Z</time></trkpt>
<trkpt lat="47.41431670" lon="7.02610000"><ele>530</ele><time>2006-01-01T00:00:00Z</time></trkpt>
<trkpt lat="47.41448330" lon="7.02595000"><ele>531</ele><time>2006-01-01T00:00:00Z</time></trkpt>
<trkpt lat="47.41465000" lon="7.02580000"><ele>530</ele><time>2006-01-01T00:00:00Z</time></trkpt>
<trkpt lat="47.41480000" lon="7.02565000"><ele>532</ele><time>2006-01-01T00:00:00Z</time></trkpt>
<trkpt lat="47.41496670" lon="7.02548330"><ele>530</ele><time>2006-01-01T00:00:00Z</time></trkpt>
<trkpt lat="47.41518330" lon="7.02535000"><ele>520</ele><time>2006-01-01T00:00:00Z</time></trkpt>
<trkpt lat="47.41528330" lon="7.02560000"><ele>511</ele><time>2006-01-01T00:00:00Z</time></trkpt>
<trkpt lat="47.41530000" lon="7.02586670"><ele>509</ele><time>2006-01-01T00:00:00Z</time></trkpt>
<trkpt lat="47.41530000" lon="7.02616670"><ele>508</ele><time>2006-01-01T00:00:00Z</time></trkpt>
<trkpt lat="47.41528330" lon="7.02648330"><ele>507</ele><time>2006-01-01T00:00:00Z</time></trkpt>
<trkpt lat="47.41520000" lon="7.02681670"><ele>505</ele><time>2006-01-01T00:00:00Z</time></trkpt>
<trkpt lat="47.41508330" lon="7.02711670"><ele>506</ele><time>2006-01-01T00:00:00Z</time></trkpt>
<trkpt lat="47.41498330" lon="7.02735000"><ele>507</ele><time>2006-01-01T00:00:00Z</time></trkpt>
<trkpt lat="47.41486670" lon="7.02756670"><ele>507</ele><time>2006-01-01T00:00:00Z</time></trkpt>
<trkpt lat="47.41475000" lon="7.02780000"><ele>506</ele><time>2006-01-01T00:00:00Z</time></trkpt>
<trkpt lat="47.41468330" lon="7.02805000"><ele>506</ele><time>2006-01-01T00:00:00Z</time></trkpt>
<trkpt lat="47.41463330" lon="7.02838330"><ele>508</ele><time>2006-01-01T00:00:00Z</time></trkpt>
<trkpt lat="47.41458330" lon="7.02870000"><ele>509</ele><time>2006-01-01T00:00:00Z</time></trkpt>
<trkpt lat="47.41453330" lon="7.02903330"><ele>509</ele><time>2006-01-01T00:00:00Z</time></trkpt>
<trkpt lat="47.41448330" lon="7.02936670"><ele>508</ele><time>2006-01-01T00:00:00Z</time></trkpt>
<trkpt lat="47.41443330" lon="7.02970000"><ele>509</ele><time>2006-01-01T00:00:00Z</time></trkpt>
<trkpt lat="47.41440000" lon="7.03003330"><ele>511</ele><time>2006-01-01T00:00:00Z</time></trkpt>
<trkpt lat="47.41440000" lon="7.03036670"><ele>511</ele><time>2006-01-01T00:00:00Z</time></trkpt>
<trkpt lat="47.41443330" lon="7.03066670"><ele>511</ele><time>2006-01-01T00:00:00Z</time></trkpt>
<trkpt lat="47.41441670" lon="7.03095000"><ele>510</ele><time>2006-01-01T00:00:00Z</time></trkpt>
<trkpt lat="47.41441670" lon="7.03121670"><ele>510</ele><time>2006-01-01T00:00:00Z</time></trkpt>
<trkpt lat="47.41440000" lon="7.03153330"><ele>511</ele><time>2006-01-01T00:00:00Z</time></trkpt>
<trkpt lat="47.41441670" lon="7.03185000"><ele>512</ele><time>2006-01-01T00:00:00Z</time></trkpt>
<trkpt lat="47.41460000" lon="7.03188330"><ele>514</ele><time>2006-01-01T00:00:00Z</time></trkpt>
<trkpt lat="47.41476670" lon="7.03173330"><ele>512</ele><time>2006-01-01T00:00:00Z</time></trkpt>
<trkpt lat="47.41491670" lon="7.03158330"><ele>512</ele><time>2006-01-01T00:00:00Z</time></trkpt>
<trkpt lat="47.41508330" lon="7.03146670"><ele>513</ele><time>2006-01-01T00:00:00Z</time></trkpt>
<trkpt lat="47.41525000" lon="7.03131670"><ele>514</ele><time>2006-01-01T00:00:00Z</time></trkpt>
<trkpt lat="47.41541670" lon="7.03116670"><ele>513</ele><time>2006-01-01T00:00:00Z</time></trkpt>
<trkpt lat="47.41558330" lon="7.03101670"><ele>513</ele><time>2006-01-01T00:00:00Z</time></trkpt>
<trkpt lat="47.41576670" lon="7.03086670"><ele>514</ele><time>2006-01-01T00:00:00Z</time></trkpt>
<trkpt lat="47.41593330" lon="7.03071670"><ele>514</ele><time>2006-01-01T00:00:00Z</time></trkpt>
<trkpt lat="47.41610000" lon="7.03060000"><ele>515</ele><time>2006-01-01T00:00:00Z</time></trkpt>
<trkpt lat="47.41628330" lon="7.03050000"><ele>515</ele><time>2006-01-01T00:00:00Z</time></trkpt>
<trkpt lat="47.41646670" lon="7.03040000"><ele>515</ele><time>2006-01-01T00:00:00Z</time></trkpt>
<trkpt lat="47.41666670" lon="7.03030000"><ele>515</ele><time>2006-01-01T00:00:00Z</time></trkpt>
<trkpt lat="47.41683330" lon="7.03021670"><ele>516</ele><time>2006-01-01T00:00:00Z</time></trkpt>
<trkpt lat="47.41701670" lon="7.03011670"><ele>516</ele><time>2006-01-01T00:00:00Z</time></trkpt>
<trkpt lat="47.41720000" lon="7.03001670"><ele>517</ele><time>2006-01-01T00:00:00Z</time></trkpt>
<trkpt lat="47.41738330" lon="7.02991670"><ele>516</ele><time>2006-01-01T00:00:00Z</time></trkpt>
<trkpt lat="47.41756670" lon="7.02983330"><ele>519</ele><time>2006-01-01T00:00:00Z</time></trkpt>
<trkpt lat="47.41773330" lon="7.02975000"><ele>520</ele><time>2006-01-01T00:00:00Z</time></trkpt>
<trkpt lat="47.41791670" lon="7.02965000"><ele>521</ele><time>2006-01-01T00:00:00Z</time></trkpt>
<trkpt lat="47.41810000" lon="7.02955000"><ele>521</ele><time>2006-01-01T00:00:00Z</time></trkpt>
<trkpt lat="47.41830000" lon="7.02946670"><ele>521</ele><time>2006-01-01T00:00:00Z</time></trkpt>
<trkpt lat="47.41848330" lon="7.02935000"><ele>521</ele><time>2006-01-01T00:00:00Z</time></trkpt>
<trkpt lat="47.41865000" lon="7.02926670"><ele>521</ele><time>2006-01-01T00:00:00Z</time></trkpt>
<trkpt lat="47.41883330" lon="7.02916670"><ele>522</ele><time>2006-01-01T00:00:00Z</time></trkpt>
<trkpt lat="47.41900000" lon="7.02908330"><ele>522</ele><time>2006-01-01T00:00:00Z</time></trkpt>
<trkpt lat="47.41918330" lon="7.02898330"><ele>523</ele><time>2006-01-01T00:00:00Z</time></trkpt>
<trkpt lat="47.41938330" lon="7.02888330"><ele>525</ele><time>2006-01-01T00:00:00Z</time></trkpt>
<trkpt lat="47.41955000" lon="7.02878330"><ele>526</ele><time>2006-01-01T00:00:00Z</time></trkpt>
<trkpt lat="47.41973330" lon="7.02870000"><ele>528</ele><time>2006-01-01T00:00:00Z</time></trkpt>
<trkpt lat="47.41991670" lon="7.02860000"><ele>528</ele><time>2006-01-01T00:00:00Z</time></trkpt>
<trkpt lat="47.42010000" lon="7.02851670"><ele>529</ele><time>2006-01-01T00:00:00Z</time></trkpt>
<trkpt lat="47.42028330" lon="7.02841670"><ele>531</ele><time>2006-01-01T00:00:00Z</time></trkpt>
<trkpt lat="47.42045000" lon="7.02833330"><ele>534</ele><time>2006-01-01T00:00:00Z</time></trkpt>
<trkpt lat="47.42061670" lon="7.02823330"><ele>534</ele><time>2006-01-01T00:00:00Z</time></trkpt>
<trkpt lat="47.42081670" lon="7.02815000"><ele>535</ele><time>2006-01-01T00:00:00Z</time></trkpt>
<trkpt lat="47.42098330" lon="7.02805000"><ele>536</ele><time>2006-01-01T00:00:00Z</time></trkpt>
<trkpt lat="47.42116670" lon="7.02796670"><ele>537</ele><time>2006-01-01T00:00:00Z</time></trkpt>
<trkpt lat="47.42135000" lon="7.02786670"><ele>539</ele><time>2006-01-01T00:00:00Z</time></trkpt>
<trkpt lat="47.42153330" lon="7.02776670"><ele>541</ele><time>2006-01-01T00:00:00Z</time></trkpt>
<trkpt lat="47.42170000" lon="7.02766670"><ele>543</ele><time>2006-01-01T00:00:00Z</time></trkpt>
<trkpt lat="47.42190000" lon="7.02758330"><ele>547</ele><time>2006-01-01T00:00:00Z</time></trkpt>
<trkpt lat="47.42203330" lon="7.02741670"><ele>550</ele><time>2006-01-01T00:00:00Z</time></trkpt>
<trkpt lat="47.42216670" lon="7.02721670"><ele>557</ele><time>2006-01-01T00:00:00Z</time></trkpt>
<trkpt lat="47.42233330" lon="7.02708330"><ele>571</ele><time>2006-01-01T00:00:00Z</time></trkpt>
<trkpt lat="47.42250000" lon="7.02696670"><ele>573</ele><time>2006-01-01T00:00:00Z</time></trkpt>
<trkpt lat="47.42268330" lon="7.02690000"><ele>580</ele><time>2006-01-01T00:00:00Z</time></trkpt>
<trkpt lat="47.42286670" lon="7.02690000"><ele>579</ele><time>2006-01-01T00:00:00Z</time></trkpt>
<trkpt lat="47.42288330" lon="7.02716670"><ele>584</ele><time>2006-01-01T00:00:00Z</time></trkpt>
<trkpt lat="47.42286670" lon="7.02745000"><ele>586</ele><time>2006-01-01T00:00:00Z</time></trkpt>
<trkpt lat="47.42285000" lon="7.02775000"><ele>588</ele><time>2006-01-01T00:00:00Z</time></trkpt>
<trkpt lat="47.42283330" lon="7.02806670"><ele>588</ele><time>2006-01-01T00:00:00Z</time></trkpt>
<trkpt lat="47.42283330" lon="7.02841670"><ele>585</ele><time>2006-01-01T00:00:00Z</time></trkpt>
<trkpt lat="47.42281670" lon="7.02873330"><ele>582</ele><time>2006-01-01T00:00:00Z</time></trkpt>
<trkpt lat="47.42281670" lon="7.02901670"><ele>579</ele><time>2006-01-01T00:00:00Z</time></trkpt>
<trkpt lat="47.42280000" lon="7.02935000"><ele>576</ele><time>2006-01-01T00:00:00Z</time></trkpt>
<trkpt lat="47.42296670" lon="7.02950000"><ele>575</ele><time>2006-01-01T00:00:00Z</time></trkpt>
<trkpt lat="47.42315000" lon="7.02936670"><ele>578</ele><time>2006-01-01T00:00:00Z</time></trkpt>
<trkpt lat="47.42331670" lon="7.02923330"><ele>581</ele><time>2006-01-01T00:00:00Z</time></trkpt>
<trkpt lat="47.42348330" lon="7.02908330"><ele>583</ele><time>2006-01-01T00:00:00Z</time></trkpt>
<trkpt lat="47.42361670" lon="7.02891670"><ele>582</ele><time>2006-01-01T00:00:00Z</time></trkpt>
<trkpt lat="47.42373330" lon="7.02871670"><ele>579</ele><time>2006-01-01T00:00:00Z</time></trkpt>
<trkpt lat="47.42391670" lon="7.02873330"><ele>577</ele><time>2006-01-01T00:00:00Z</time></trkpt>
<trkpt lat="47.42401670" lon="7.02895000"><ele>584</ele><time>2006-01-01T00:00:00Z</time></trkpt>
<trkpt lat="47.42405000" lon="7.02921670"><ele>582</ele><time>2006-01-01T00:00:00Z</time></trkpt>
<trkpt lat="47.42411670" lon="7.02946670"><ele>581</ele><time>2006-01-01T00:00:00Z</time></trkpt>
<trkpt lat="47.42401670" lon="7.02970000"><ele>583</ele><time>2006-01-01T00:00:00Z</time></trkpt>
<trkpt lat="47.42383330" lon="7.02986670"><ele>585</ele><time>2006-01-01T00:00:00Z</time></trkpt>
<trkpt lat="47.42365000" lon="7.03000000"><ele>586</ele><time>2006-01-01T00:00:00Z</time></trkpt>
<trkpt lat="47.42351670" lon="7.03020000"><ele>582</ele><time>2006-01-01T00:00:00Z</time></trkpt>
<trkpt lat="47.42338330" lon="7.03041670"><ele>579</ele><time>2006-01-01T00:00:00Z</time></trkpt>
<trkpt lat="47.42320000" lon="7.03056670"><ele>576</ele><time>2006-01-01T00:00:00Z</time></trkpt>
<trkpt lat="47.42306670" lon="7.03076670"><ele>570</ele><time>2006-01-01T00:00:00Z</time></trkpt>
<trkpt lat="47.42291670" lon="7.03095000"><ele>568</ele><time>2006-01-01T00:00:00Z</time></trkpt>
<trkpt lat="47.42276670" lon="7.03110000"><ele>566</ele><time>2006-01-01T00:00:00Z</time></trkpt>
<trkpt lat="47.42268330" lon="7.03136670"><ele>562</ele><time>2006-01-01T00:00:00Z</time></trkpt>
<trkpt lat="47.42266670" lon="7.03163330"><ele>562</ele><time>2006-01-01T00:00:00Z</time></trkpt>
<trkpt lat="47.42265000" lon="7.03191670"><ele>563</ele><time>2006-01-01T00:00:00Z</time></trkpt>
<trkpt lat="47.42246670" lon="7.03206670"><ele>562</ele><time>2006-01-01T00:00:00Z</time></trkpt>
<trkpt lat="47.42228330" lon="7.03213330"><ele>559</ele><time>2006-01-01T00:00:00Z</time></trkpt>
<trkpt lat="47.42206670" lon="7.03223330"><ele>556</ele><time>2006-01-01T00:00:00Z</time></trkpt>
<trkpt lat="47.42183330" lon="7.03238330"><ele>553</ele><time>2006-01-01T00:00:00Z</time></trkpt>
<trkpt lat="47.42166670" lon="7.03251670"><ele>551</ele><time>2006-01-01T00:00:00Z</time></trkpt>
<trkpt lat="47.42151670" lon="7.03268330"><ele>549</ele><time>2006-01-01T00:00:00Z</time></trkpt>
<trkpt lat="47.42135000" lon="7.03293330"><ele>547</ele><time>2006-01-01T00:00:00Z</time></trkpt>
<trkpt lat="47.42120000" lon="7.03316670"><ele>544</ele><time>2006-01-01T00:00:00Z</time></trkpt>
<trkpt lat="47.42116670" lon="7.03345000"><ele>544</ele><time>2006-01-01T00:00:00Z</time></trkpt>
<trkpt lat="47.42115000" lon="7.03373330"><ele>544</ele><time>2006-01-01T00:00:00Z</time></trkpt>
<trkpt lat="47.42113330" lon="7.03403330"><ele>544</ele><time>2006-01-01T00:00:00Z</time></trkpt>
<trkpt lat="47.42115000" lon="7.03438330"><ele>545</ele><time>2006-01-01T00:00:00Z</time></trkpt>
<trkpt lat="47.42115000" lon="7.03476670"><ele>548</ele><time>2006-01-01T00:00:00Z</time></trkpt>
<trkpt lat="47.42110000" lon="7.03515000"><ele>550</ele><time>2006-01-01T00:00:00Z</time></trkpt>
<trkpt lat="47.42106670" lon="7.03543330"><ele>552</ele><time>2006-01-01T00:00:00Z</time></trkpt>
<trkpt lat="47.42105000" lon="7.03570000"><ele>554</ele><time>2006-01-01T00:00:00Z</time></trkpt>
<trkpt lat="47.42103330" lon="7.03598330"><ele>555</ele><time>2006-01-01T00:00:00Z</time></trkpt>
<trkpt lat="47.42101670" lon="7.03626670"><ele>555</ele><time>2006-01-01T00:00:00Z</time></trkpt>
<trkpt lat="47.42100000" lon="7.03655000"><ele>554</ele><time>2006-01-01T00:00:00Z</time></trkpt>
<trkpt lat="47.42100000" lon="7.03683330"><ele>553</ele><time>2006-01-01T00:00:00Z</time></trkpt>
<trkpt lat="47.42101670" lon="7.03711670"><ele>552</ele><time>2006-01-01T00:00:00Z</time></trkpt>
<trkpt lat="47.42105000" lon="7.03741670"><ele>551</ele><time>2006-01-01T00:00:00Z</time></trkpt>
<trkpt lat="47.42108330" lon="7.03773330"><ele>549</ele><time>2006-01-01T00:00:00Z</time></trkpt>
<trkpt lat="47.42111670" lon="7.03800000"><ele>547</ele><time>2006-01-01T00:00:00Z</time></trkpt>
<trkpt lat="47.42116670" lon="7.03838330"><ele>546</ele><time>2006-01-01T00:00:00Z</time></trkpt>
<trkpt lat="47.42121670" lon="7.03875000"><ele>544</ele><time>2006-01-01T00:00:00Z</time></trkpt>
<trkpt lat="47.42125000" lon="7.03908330"><ele>543</ele><time>2006-01-01T00:00:00Z</time></trkpt>
<trkpt lat="47.42128330" lon="7.03938330"><ele>544</ele><time>2006-01-01T00:00:00Z</time></trkpt>
<trkpt lat="47.42130000" lon="7.03971670"><ele>543</ele><time>2006-01-01T00:00:00Z</time></trkpt>
<trkpt lat="47.42133330" lon="7.04001670"><ele>543</ele><time>2006-01-01T00:00:00Z</time></trkpt>
<trkpt lat="47.42135000" lon="7.04031670"><ele>543</ele><time>2006-01-01T00:00:00Z</time></trkpt>
<trkpt lat="47.42135000" lon="7.04063330"><ele>544</ele><time>2006-01-01T00:00:00Z</time></trkpt>
<trkpt lat="47.42135000" lon="7.04093330"><ele>546</ele><time>2006-01-01T00:00:00Z</time></trkpt>
<trkpt lat="47.42138330" lon="7.04126670"><ele>547</ele><time>2006-01-01T00:00:00Z</time></trkpt>
<trkpt lat="47.42138330" lon="7.04160000"><ele>548</ele><time>2006-01-01T00:00:00Z</time></trkpt>
<trkpt lat="47.42140000" lon="7.04193330"><ele>550</ele><time>2006-01-01T00:00:00Z</time></trkpt>
<trkpt lat="47.42138330" lon="7.04225000"><ele>548</ele><time>2006-01-01T00:00:00Z</time></trkpt>
<trkpt lat="47.42136670" lon="7.04255000"><ele>547</ele><time>2006-01-01T00:00:00Z</time></trkpt>
<trkpt lat="47.42136670" lon="7.04286670"><ele>546</ele><time>2006-01-01T00:00:00Z</time></trkpt>
<trkpt lat="47.42136670" lon="7.04321670"><ele>546</ele><time>2006-01-01T00:00:00Z</time></trkpt>
<trkpt lat="47.42135000" lon="7.04356670"><ele>547</ele><time>2006-01-01T00:00:00Z</time></trkpt>
<trkpt lat="47.42135000" lon="7.04391670"><ele>544</ele><time>2006-01-01T00:00:00Z</time></trkpt>
<trkpt lat="47.42135000" lon="7.04425000"><ele>541</ele><time>2006-01-01T00:00:00Z</time></trkpt>
<trkpt lat="47.42135000" lon="7.04460000"><ele>539</ele><time>2006-01-01T00:00:00Z</time></trkpt>
<trkpt lat="47.42135000" lon="7.04493330"><ele>538</ele><time>2006-01-01T00:00:00Z</time></trkpt>
<trkpt lat="47.42133330" lon="7.04525000"><ele>536</ele><time>2006-01-01T00:00:00Z</time></trkpt>
<trkpt lat="47.42128330" lon="7.04556670"><ele>534</ele><time>2006-01-01T00:00:00Z</time></trkpt>
<trkpt lat="47.42120000" lon="7.04588330"><ele>532</ele><time>2006-01-01T00:00:00Z</time></trkpt>
<trkpt lat="47.42113330" lon="7.04618330"><ele>531</ele><time>2006-01-01T00:00:00Z</time></trkpt>
<trkpt lat="47.42105000" lon="7.04646670"><ele>530</ele><time>2006-01-01T00:00:00Z</time></trkpt>
<trkpt lat="47.42098330" lon="7.04676670"><ele>529</ele><time>2006-01-01T00:00:00Z</time></trkpt>
<trkpt lat="47.42088330" lon="7.04705000"><ele>529</ele><time>2006-01-01T00:00:00Z</time></trkpt>
<trkpt lat="47.42083330" lon="7.04735000"><ele>529</ele><time>2006-01-01T00:00:00Z</time></trkpt>
<trkpt lat="47.42088330" lon="7.04760000"><ele>528</ele><time>2006-01-01T00:00:00Z</time></trkpt>
<trkpt lat="47.42106670" lon="7.04780000"><ele>526</ele><time>2006-01-01T00:00:00Z</time></trkpt>
<trkpt lat="47.42128330" lon="7.04801670"><ele>524</ele><time>2006-01-01T00:00:00Z</time></trkpt>
<trkpt lat="47.42146670" lon="7.04821670"><ele>522</ele><time>2006-01-01T00:00:00Z</time></trkpt>
<trkpt lat="47.42165000" lon="7.04841670"><ele>520</ele><time>2006-01-01T00:00:00Z</time></trkpt>
<trkpt lat="47.42180000" lon="7.04860000"><ele>519</ele><time>2006-01-01T00:00:00Z</time></trkpt>
<trkpt lat="47.42195000" lon="7.04878330"><ele>519</ele><time>2006-01-01T00:00:00Z</time></trkpt>
<trkpt lat="47.42211670" lon="7.04893330"><ele>520</ele><time>2006-01-01T00:00:00Z</time></trkpt>
<trkpt lat="47.42226670" lon="7.04908330"><ele>521</ele><time>2006-01-01T00:00:00Z</time></trkpt>
<trkpt lat="47.42240000" lon="7.04928330"><ele>523</ele><time>2006-01-01T00:00:00Z</time></trkpt>
<trkpt lat="47.42231670" lon="7.04953330"><ele>524</ele><time>2006-01-01T00:00:00Z</time></trkpt>
<trkpt lat="47.42208330" lon="7.04960000"><ele>527</ele><time>2006-01-01T00:00:00Z</time></trkpt>
<trkpt lat="47.42185000" lon="7.04961670"><ele>528</ele><time>2006-01-01T00:00:00Z</time></trkpt>
<trkpt lat="47.42161670" lon="7.04960000"><ele>529</ele><time>2006-01-01T00:00:00Z</time></trkpt>
<trkpt lat="47.42143330" lon="7.04956670"><ele>531</ele><time>2006-01-01T00:00:00Z</time></trkpt>
<trkpt lat="47.42125000" lon="7.04950000"><ele>532</ele><time>2006-01-01T00:00:00Z</time></trkpt>
<trkpt lat="47.42101670" lon="7.04943330"><ele>531</ele><time>2006-01-01T00:00:00Z</time></trkpt>
<trkpt lat="47.42085000" lon="7.04935000"><ele>531</ele><time>2006-01-01T00:00:00Z</time></trkpt>
<trkpt lat="47.42061670" lon="7.04935000"><ele>530</ele><time>2006-01-01T00:00:00Z</time></trkpt>
<trkpt lat="47.42045000" lon="7.04950000"><ele>530</ele><time>2006-01-01T00:00:00Z</time></trkpt>
<trkpt lat="47.42026670" lon="7.04971670"><ele>527</ele><time>2006-01-01T00:00:00Z</time></trkpt>
<trkpt lat="47.42011670" lon="7.04995000"><ele>525</ele><time>2006-01-01T00:00:00Z</time></trkpt>
<trkpt lat="47.42001670" lon="7.05021670"><ele>521</ele><time>2006-01-01T00:00:00Z</time></trkpt>
<trkpt lat="47.41995000" lon="7.05048330"><ele>519</ele><time>2006-01-01T00:00:00Z</time></trkpt>
<trkpt lat="47.41986670" lon="7.05076670"><ele>518</ele><time>2006-01-01T00:00:00Z</time></trkpt>
<trkpt lat="47.41981670" lon="7.05105000"><ele>517</ele><time>2006-01-01T00:00:00Z</time></trkpt>
<trkpt lat="47.41980000" lon="7.05131670"><ele>500</ele><time>2006-01-01T00:00:00Z</time></trkpt>
<trkpt lat="47.41976670" lon="7.05160000"><ele>511</ele><time>2006-01-01T00:00:00Z</time></trkpt>
<trkpt lat="47.41971670" lon="7.05190000"><ele>511</ele><time>2006-01-01T00:00:00Z</time></trkpt>
<trkpt lat="47.41968330" lon="7.05215000"><ele>512</ele><time>2006-01-01T00:00:00Z</time></trkpt>
<trkpt lat="47.41963330" lon="7.05243330"><ele>513</ele><time>2006-01-01T00:00:00Z</time></trkpt>
<trkpt lat="47.41958330" lon="7.05275000"><ele>513</ele><time>2006-01-01T00:00:00Z</time></trkpt>
<trkpt lat="47.41955000" lon="7.05303330"><ele>512</ele><time>2006-01-01T00:00:00Z</time></trkpt>
<trkpt lat="47.41950000" lon="7.05330000"><ele>513</ele><time>2006-01-01T00:00:00Z</time></trkpt>
<trkpt lat="47.41946670" lon="7.05356670"><ele>512</ele><time>2006-01-01T00:00:00Z</time></trkpt>
<trkpt lat="47.41926670" lon="7.05355000"><ele>508</ele><time>2006-01-01T00:00:00Z</time></trkpt>
<trkpt lat="47.41908330" lon="7.05353330"><ele>502</ele><time>2006-01-01T00:00:00Z</time></trkpt>
<trkpt lat="47.41886670" lon="7.05353330"><ele>499</ele><time>2006-01-01T00:00:00Z</time></trkpt>
<trkpt lat="47.41866670" lon="7.05348330"><ele>495</ele><time>2006-01-01T00:00:00Z</time></trkpt>
<trkpt lat="47.41848330" lon="7.05345000"><ele>492</ele><time>2006-01-01T00:00:00Z</time></trkpt>
<trkpt lat="47.41835000" lon="7.05366670"><ele>489</ele><time>2006-01-01T00:00:00Z</time></trkpt>
<trkpt lat="47.41833330" lon="7.05396670"><ele>492</ele><time>2006-01-01T00:00:00Z</time></trkpt>
<trkpt lat="47.41831670" lon="7.05430000"><ele>494</ele><time>2006-01-01T00:00:00Z</time></trkpt>
<trkpt lat="47.41830000" lon="7.05465000"><ele>494</ele><time>2006-01-01T00:00:00Z</time></trkpt>
<trkpt lat="47.41828330" lon="7.05495000"><ele>493</ele><time>2006-01-01T00:00:00Z</time></trkpt>
<trkpt lat="47.41826670" lon="7.05526670"><ele>492</ele><time>2006-01-01T00:00:00Z</time></trkpt>
<trkpt lat="47.41825000" lon="7.05558330"><ele>492</ele><time>2006-01-01T00:00:00Z</time></trkpt>
<trkpt lat="47.41823330" lon="7.05590000"><ele>491</ele><time>2006-01-01T00:00:00Z</time></trkpt>
<trkpt lat="47.41821670" lon="7.05621670"><ele>491</ele><time>2006-01-01T00:00:00Z</time></trkpt>
<trkpt lat="47.41820000" lon="7.05655000"><ele>491</ele><time>2006-01-01T00:00:00Z</time></trkpt>
<trkpt lat="47.41816670" lon="7.05690000"><ele>491</ele><time>2006-01-01T00:00:00Z</time></trkpt>
<trkpt lat="47.41815000" lon="7.05721670"><ele>489</ele><time>2006-01-01T00:00:00Z</time></trkpt>
<trkpt lat="47.41815000" lon="7.05751670"><ele>489</ele><time>2006-01-01T00:00:00Z</time></trkpt>
<trkpt lat="47.41818330" lon="7.05780000"><ele>484</ele><time>2006-01-01T00:00:00Z</time></trkpt>
<trkpt lat="47.41818330" lon="7.05811670"><ele>486</ele><time>2006-01-01T00:00:00Z</time></trkpt>
<trkpt lat="47.41821670" lon="7.05848330"><ele>485</ele><time>2006-01-01T00:00:00Z</time></trkpt>
<trkpt lat="47.41826670" lon="7.05883330"><ele>484</ele><time>2006-01-01T00:00:00Z</time></trkpt>
<trkpt lat="47.41833330" lon="7.05918330"><ele>483</ele><time>2006-01-01T00:00:00Z</time></trkpt>
<trkpt lat="47.41833330" lon="7.05953330"><ele>482</ele><time>2006-01-01T00:00:00Z</time></trkpt>
<trkpt lat="47.41831670" lon="7.05991670"><ele>481</ele><time>2006-01-01T00:00:00Z</time></trkpt>
<trkpt lat="47.41831670" lon="7.06028330"><ele>480</ele><time>2006-01-01T00:00:00Z</time></trkpt>
<trkpt lat="47.41831670" lon="7.06065000"><ele>480</ele><time>2006-01-01T00:00:00Z</time></trkpt>
<trkpt lat="47.41833330" lon="7.06100000"><ele>479</ele><time>2006-01-01T00:00:00Z</time></trkpt>
<trkpt lat="47.41833330" lon="7.06130000"><ele>479</ele><time>2006-01-01T00:00:00Z</time></trkpt>
<trkpt lat="47.41830000" lon="7.06163330"><ele>479</ele><time>2006-01-01T00:00:00Z</time></trkpt>
<trkpt lat="47.41831670" lon="7.06193330"><ele>479</ele><time>2006-01-01T00:00:00Z</time></trkpt>
<trkpt lat="47.41831670" lon="7.06225000"><ele>479</ele><time>2006-01-01T00:00:00Z</time></trkpt>
<trkpt lat="47.41833330" lon="7.06256670"><ele>481</ele><time>2006-01-01T00:00:00Z</time></trkpt>
<trkpt lat="47.41833330" lon="7.06288330"><ele>482</ele><time>2006-01-01T00:00:00Z</time></trkpt>
<trkpt lat="47.41835000" lon="7.06320000"><ele>482</ele><time>2006-01-01T00:00:00Z</time></trkpt>
<trkpt lat="47.41838330" lon="7.06353330"><ele>483</ele><time>2006-01-01T00:00:00Z</time></trkpt>
<trkpt lat="47.41843330" lon="7.06383330"><ele>482</ele><time>2006-01-01T00:00:00Z</time></trkpt>
<trkpt lat="47.41855000" lon="7.06401670"><ele>479</ele><time>2006-01-01T00:00:00Z</time></trkpt>
<trkpt lat="47.41860000" lon="7.06430000"><ele>482</ele><time>2006-01-01T00:00:00Z</time></trkpt>
<trkpt lat="47.41863330" lon="7.06460000"><ele>483</ele><time>2006-01-01T00:00:00Z</time></trkpt>
<trkpt lat="47.41858330" lon="7.06486670"><ele>487</ele><time>2006-01-01T00:00:00Z</time></trkpt>
<trkpt lat="47.41861670" lon="7.06516670"><ele>488</ele><time>2006-01-01T00:00:00Z</time></trkpt>
<trkpt lat="47.41866670" lon="7.06543330"><ele>489</ele><time>2006-01-01T00:00:00Z</time></trkpt>
<trkpt lat="47.41870000" lon="7.06576670"><ele>489</ele><time>2006-01-01T00:00:00Z</time></trkpt>
<trkpt lat="47.41870000" lon="7.06608330"><ele>487</ele><time>2006-01-01T00:00:00Z</time></trkpt>
<trkpt lat="47.41865000" lon="7.06643330"><ele>485</ele><time>2006-01-01T00:00:00Z</time></trkpt>
<trkpt lat="47.41866670" lon="7.06675000"><ele>483</ele><time>2006-01-01T00:00:00Z</time></trkpt>
<trkpt lat="47.41873330" lon="7.06701670"><ele>483</ele><time>2006-01-01T00:00:00Z</time></trkpt>
<trkpt lat="47.41873330" lon="7.06733330"><ele>483</ele><time>2006-01-01T00:00:00Z</time></trkpt>
<trkpt lat="47.41868330" lon="7.06765000"><ele>482</ele><time>2006-01-01T00:00:00Z</time></trkpt>
<trkpt lat="47.41863330" lon="7.06796670"><ele>481</ele><time>2006-01-01T00:00:00Z</time></trkpt>
<trkpt lat="47.41860000" lon="7.06826670"><ele>481</ele><time>2006-01-01T00:00:00Z</time></trkpt>
<trkpt lat="47.41861670" lon="7.06850000"><ele>471</ele><time>2006-01-01T00:00:00Z</time></trkpt>
<trkpt lat="47.41855000" lon="7.06878330"><ele>470</ele><time>2006-01-01T00:00:00Z</time></trkpt>
<trkpt lat="47.41845000" lon="7.06901670"><ele>469</ele><time>2006-01-01T00:00:00Z</time></trkpt>
<trkpt lat="47.41845000" lon="7.06933330"><ele>468</ele><time>2006-01-01T00:00:00Z</time></trkpt>
<trkpt lat="47.41845000" lon="7.06970000"><ele>466</ele><time>2006-01-01T00:00:00Z</time></trkpt>
<trkpt lat="47.41846670" lon="7.07010000"><ele>464</ele><time>2006-01-01T00:00:00Z</time></trkpt>
<trkpt lat="47.41848330" lon="7.07046670"><ele>461</ele><time>2006-01-01T00:00:00Z</time></trkpt>
<trkpt lat="47.41848330" lon="7.07073330"><ele>459</ele><time>2006-01-01T00:00:00Z</time></trkpt>
<trkpt lat="47.41861670" lon="7.07101670"><ele>458</ele><time>2006-01-01T00:00:00Z</time></trkpt>
<trkpt lat="47.41883330" lon="7.07118330"><ele>459</ele><time>2006-01-01T00:00:00Z</time></trkpt>
<trkpt lat="47.41903330" lon="7.07130000"><ele>459</ele><time>2006-01-01T00:00:00Z</time></trkpt>
<trkpt lat="47.41925000" lon="7.07143330"><ele>460</ele><time>2006-01-01T00:00:00Z</time></trkpt>
<trkpt lat="47.41946670" lon="7.07148330"><ele>459</ele><time>2006-01-01T00:00:00Z</time></trkpt>
<trkpt lat="47.41963330" lon="7.07163330"><ele>457</ele><time>2006-01-01T00:00:00Z</time></trkpt>
</trkseg></trk></gpx>